GW2039 Weather Reports


Display with metric or nautical units.
time (UTC)temp
F
wind
direction
speed
MPH
gust
MPH
rain 1hr
in
rain 24hr
in
rain mn
in
humidity
%
barometer
mb
20260509075103 95 275 1.0 7.0 0.00 0.00 0.00 44 1009.2
20260509075007 95 276 2.0 7.0 0.00 0.00 0.00 44 1009.2
20260509074904 95 167 3.0 7.0 0.00 0.00 0.00 44 1009.2
20260509074803 95 198 3.0 7.0 0.00 0.00 0.00 43 1009.3
20260509074604 95 126 3.0 7.0 0.00 0.00 0.00 43 1009.3
20260509074505 95 163 4.0 7.0 0.00 0.00 0.00 44 1009.3
20260509074403 95 144 4.0 7.0 0.00 0.00 0.00 43 1009.3
20260509074305 96 186 2.0 7.0 0.00 0.00 0.00 45 1009.3
20260509074205 96 243 0.0 3.0 0.00 0.00 0.00 44 1009.3
20260509074104 95 289 1.0 3.0 0.00 0.00 0.00 44 1009.4
20260509074008 95 279 1.0 3.0 0.00 0.00 0.00 44 1009.4
20260509073903 95 331 1.0 3.0 0.00 0.00 0.00 44 1009.4
20260509073806 95 275 1.0 4.0 0.00 0.00 0.00 44 1009.4
20260509073705 95 307 1.0 4.0 0.00 0.00 0.00 43 1009.4
20260509073508 95 238 0.0 4.0 0.00 0.00 0.00 44 1009.4
20260509073405 95 238 0.0 4.0 0.00 0.00 0.00 43 1009.5
20260509073203 95 9 1.0 4.0 0.00 0.00 0.00 43 1009.5
20260509073103 95 303 2.0 4.0 0.00 0.00 0.00 43 1009.6
20260509073008 94 47 2.0 4.0 0.00 0.00 0.00 43 1009.6
20260509072902 94 360 0.0 3.0 0.00 0.00 0.00 44 1009.6
20260509072805 94 360 0.0 2.0 0.00 0.00 0.00 44 1009.6
20260509072603 94 355 0.0 2.0 0.00 0.00 0.00 44 1009.7
20260509072506 94 355 1.0 2.0 0.00 0.00 0.00 43 1009.7
20260509072306 94 343 0.0 3.0 0.00 0.00 0.00 45 1009.7
20260509072205 94 303 0.0 3.0 0.00 0.00 0.00 45 1009.7
20260509072105 94 302 0.0 3.0 0.00 0.00 0.00 45 1009.7
20260509072008 94 324 1.0 3.0 0.00 0.00 0.00 45 1009.7
20260509071904 93 323 1.0 3.0 0.00 0.00 0.00 45 1009.7
20260509071805 93 275 1.0 3.0 0.00 0.00 0.00 45 1009.7
20260509071705 93 297 1.0 4.0 0.00 0.00 0.00 46 1009.8
20260509071605 93 291 1.0 5.0 0.00 0.00 0.00 45 1009.8
20260509071507 93 289 2.0 5.0 0.00 0.00 0.00 45 1009.8
20260509071403 93 293 1.0 5.0 0.00 0.00 0.00 44 1009.8
20260509071304 93 90 1.0 5.0 0.00 0.00 0.00 45 1009.8
20260509071203 93 171 1.0 5.0 0.00 0.00 0.00 45 1009.8
20260509070806 93 216 2.0 5.0 0.00 0.00 0.00 46 1009.8
20260509070703 93 235 1.0 8.0 0.00 0.00 0.00 45 1009.9
20260509070603 93 166 1.0 8.0 0.00 0.00 0.00 45 1009.9
20260509070506 92 144 2.0 8.0 0.00 0.00 0.00 45 1009.9
20260509070404 92 152 2.0 8.0 0.00 0.00 0.00 45 1009.9
20260509070303 93 181 1.0 8.0 0.00 0.00 0.00 45 1009.9
20260509070208 93 220 2.0 8.0 0.00 0.00 0.00 45 1009.9
20260509070101 93 238 4.0 8.0 0.00 0.00 0.00 45 1009.9
20260509070007 93 190 5.0 8.0 0.00 0.00 0.00 44 1010.0
20260509065905 93 197 3.0 9.0 0.00 0.00 0.00 46 1009.9
20260509065803 93 276 2.0 4.0 0.00 0.00 0.00 45 1010.0
20260509065703 92 277 2.0 4.0 0.00 0.00 0.00 45 1010.0
20260509065505 92 304 1.0 6.0 0.00 0.00 0.00 45 1010.0
20260509065306 92 5 1.0 6.0 0.00 0.00 0.00 44 1010.1
20260509065203 92 58 1.0 6.0 0.00 0.00 0.00 44 1010.1
20260509065102 92 76 2.0 6.0 0.00 0.00 0.00 44 1010.2
20260509065006 92 44 1.0 6.0 0.00 0.00 0.00 44 1010.2
20260509064704 92 228 2.0 6.0 0.00 0.00 0.00 44 1010.2
20260509064601 92 219 2.0 6.0 0.00 0.00 0.00 45 1010.2
20260509064507 92 267 3.0 6.0 0.00 0.00 0.00 45 1010.2
20260509064302 92 217 2.0 6.0 0.00 0.00 0.00 46 1010.3
20260509064204 92 158 3.0 6.0 0.00 0.00 0.00 46 1010.3
20260509063905 92 71 2.0 6.0 0.00 0.00 0.00 46 1010.3
20260509063703 92 78 2.0 6.0 0.00 0.00 0.00 47 1010.4
20260509063604 92 113 1.0 4.0 0.00 0.00 0.00 47 1010.3
20260509063403 92 188 1.0 4.0 0.00 0.00 0.00 48 1010.3
20260509063305 92 277 1.0 5.0 0.00 0.00 0.00 48 1010.4
20260509063059 91 219 2.0 8.0 0.00 0.00 0.00 47 1010.5
20260509063005 91 219 2.0 8.0 0.00 0.00 0.00 47 1010.5
20260509062902 91 159 2.0 8.0 0.00 0.00 0.00 47 1010.5
20260509062603 91 117 4.0 8.0 0.00 0.00 0.00 47 1010.5
20260509062306 91 136 3.0 6.0 0.00 0.00 0.00 48 1010.5
20260509062201 91 75 2.0 5.0 0.00 0.00 0.00 47 1010.5
20260509062105 91 91 1.0 4.0 0.00 0.00 0.00 47 1010.6
20260509062007 91 129 1.0 4.0 0.00 0.00 0.00 47 1010.6
20260509061903 91 99 1.0 4.0 0.00 0.00 0.00 47 1010.5
20260509061804 91 40 0.0 4.0 0.00 0.00 0.00 48 1010.6
20260509061703 91 338 0.0 4.0 0.00 0.00 0.00 48 1010.6
20260509061602 90 131 1.0 4.0 0.00 0.00 0.00 47 1010.5
20260509061401 90 111 3.0 5.0 0.00 0.00 0.00 47 1010.7
20260509061104 90 86 1.0 9.0 0.00 0.00 0.00 47 1010.6
20260509061005 90 57 1.0 9.0 0.00 0.00 0.00 47 1010.6
20260509060804 90 122 1.0 9.0 0.00 0.00 0.00 47 1010.7
20260509060703 90 128 3.0 9.0 0.00 0.00 0.00 47 1010.6
20260509060603 90 141 4.0 9.0 0.00 0.00 0.00 47 1010.7
20260509060506 90 146 6.0 9.0 0.00 0.00 0.00 47 1010.7
20260509060403 90 110 7.0 9.0 0.00 0.00 0.00 48 1010.7
20260509060203 90 142 2.0 7.0 0.00 0.00 0.00 48 1010.7
20260509060008 90 150 0.0 4.0 0.00 0.00 0.00 48 1010.8
20260509055903 90 31 0.0 4.0 0.00 0.00 0.00 48 1010.9
20260509055805 90 31 1.0 5.0 0.00 0.00 0.00 47 1010.8
20260509055704 90 355 1.0 5.0 0.00 0.00 0.00 47 1010.8
20260509055601 90 38 2.0 8.0 0.00 0.00 0.00 47 1010.8
20260509055506 90 144 2.0 8.0 0.00 0.00 0.00 48 1010.8
20260509055402 90 107 2.0 8.0 0.00 0.00 0.00 47 1010.8
20260509055306 90 98 2.0 8.0 0.00 0.00 0.00 47 1010.8
20260509055202 90 134 3.0 8.0 0.00 0.00 0.00 47 1010.9
20260509055105 90 118 4.0 8.0 0.00 0.00 0.00 47 1010.8
20260509055005 90 140 4.0 8.0 0.00 0.00 0.00 48 1010.8
20260509054902 90 168 5.0 8.0 0.00 0.00 0.00 48 1010.8
20260509054803 90 126 5.0 8.0 0.00 0.00 0.00 48 1010.9
20260509054704 90 190 3.0 7.0 0.00 0.00 0.00 48 1010.9
20260509054605 90 144 3.0 7.0 0.00 0.00 0.00 48 1010.9
20260509054505 89 181 2.0 7.0 0.00 0.00 0.00 48 1010.9
20260509054202 89 108 2.0 7.0 0.00 0.00 0.00 48 1010.9
20260509054103 89 145 2.0 7.0 0.00 0.00 0.00 48 1010.9
20260509054005 89 116 1.0 7.0 0.00 0.00 0.00 48 1010.9
20260509053903 89 111 1.0 7.0 0.00 0.00 0.00 48 1010.9
20260509053801 89 110 3.0 7.0 0.00 0.00 0.00 48 1010.9
20260509053604 89 150 3.0 7.0 0.00 0.00 0.00 48 1011.0
20260509053504 89 178 4.0 7.0 0.00 0.00 0.00 48 1010.9
20260509053403 89 123 3.0 7.0 0.00 0.00 0.00 49 1011.0
20260509053303 89 180 2.0 7.0 0.00 0.00 0.00 49 1010.9
20260509053203 89 135 2.0 7.0 0.00 0.00 0.00 49 1011.0
20260509053104 89 183 4.0 7.0 0.00 0.00 0.00 49 1011.0
20260509053003 89 142 4.0 7.0 0.00 0.00 0.00 49 1011.0
20260509052903 89 172 2.0 5.0 0.00 0.00 0.00 49 1011.0
20260509052801 89 161 2.0 5.0 0.00 0.00 0.00 49 1011.1
20260509052704 89 140 2.0 5.0 0.00 0.00 0.00 49 1011.0
20260509052506 89 131 3.0 5.0 0.00 0.00 0.00 48 1011.1
20260509052404 88 131 3.0 6.0 0.00 0.00 0.00 49 1011.1
20260509052301 88 126 3.0 6.0 0.00 0.00 0.00 49 1011.1
20260509052205 88 173 3.0 6.0 0.00 0.00 0.00 49 1011.1
20260509052007 88 154 2.0 6.0 0.00 0.00 0.00 50 1011.1
20260509051904 88 166 1.0 6.0 0.00 0.00 0.00 50 1011.1
20260509051804 88 165 2.0 6.0 0.00 0.00 0.00 50 1011.1
20260509051603 88 185 2.0 7.0 0.00 0.00 0.00 51 1011.1
20260509051504 88 188 2.0 7.0 0.00 0.00 0.00 51 1011.1
20260509051403 88 186 3.0 7.0 0.00 0.00 0.00 49 1011.1
20260509051301 88 161 4.0 7.0 0.00 0.00 0.00 49 1011.2
20260509051202 88 142 4.0 7.0 0.00 0.00 0.00 50 1011.2
20260509051103 88 186 3.0 6.0 0.00 0.00 0.00 50 1011.2
20260509051006 88 184 3.0 7.0 0.00 0.00 0.00 50 1011.1
20260509050904 88 74 3.0 7.0 0.00 0.00 0.00 50 1011.2
20260509050804 88 52 3.0 7.0 0.00 0.00 0.00 49 1011.2
20260509050703 88 118 4.0 7.0 0.00 0.00 0.00 49 1011.3
20260509050603 88 121 4.0 7.0 0.00 0.00 0.00 50 1011.2
20260509050506 88 134 2.0 7.0 0.00 0.00 0.00 50 1011.3
20260509050003 87 184 2.0 5.0 0.00 0.00 0.00 51 1011.2
20260509045902 87 173 3.0 7.0 0.00 0.00 0.00 51 1011.2
20260509045803 87 186 3.0 7.0 0.00 0.00 0.00 51 1011.2
20260509045603 87 109 3.0 7.0 0.00 0.00 0.00 51 1011.3
20260509045505 87 161 3.0 9.0 0.00 0.00 0.00 51 1011.3
20260509045400 87 134 3.0 9.0 0.00 0.00 0.00 51 1011.3
20260509045306 87 132 3.0 9.0 0.00 0.00 0.00 51 1011.3
20260509045203 87 109 4.0 9.0 0.00 0.00 0.00 51 1011.2
20260509045004 87 143 2.0 9.0 0.00 0.00 0.00 51 1011.2
20260509044902 87 125 4.0 9.0 0.00 0.00 0.00 51 1011.3
20260509044801 87 98 5.0 9.0 0.00 0.00 0.00 51 1011.3
20260509044702 87 126 4.0 9.0 0.00 0.00 0.00 52 1011.3
20260509044603 87 107 2.0 7.0 0.00 0.00 0.00 52 1011.4
20260509044503 87 117 3.0 7.0 0.00 0.00 0.00 52 1011.4
20260509044404 87 128 4.0 7.0 0.00 0.00 0.00 52 1011.3
20260509044302 87 129 4.0 7.0 0.00 0.00 0.00 52 1011.4
20260509044202 87 129 4.0 5.0 0.00 0.00 0.00 52 1011.4
20260509044102 87 109 3.0 6.0 0.00 0.00 0.00 52 1011.4
20260509043902 86 138 4.0 6.0 0.00 0.00 0.00 52 1011.3
20260509043804 86 137 4.0 6.0 0.00 0.00 0.00 52 1011.5
20260509043703 86 169 4.0 6.0 0.00 0.00 0.00 53 1011.4
20260509043504 86 161 2.0 6.0 0.00 0.00 0.00 53 1011.4
20260509043400 86 126 3.0 6.0 0.00 0.00 0.00 53 1011.4
20260509043304 86 83 3.0 6.0 0.00 0.00 0.00 53 1011.4
20260509043201 86 123 4.0 6.0 0.00 0.00 0.00 52 1011.4
20260509043003 86 140 2.0 5.0 0.00 0.00 0.00 53 1011.4
20260509042900 86 148 2.0 6.0 0.00 0.00 0.00 53 1011.3
20260509042803 86 132 3.0 6.0 0.00 0.00 0.00 53 1011.4
20260509042701 86 127 4.0 6.0 0.00 0.00 0.00 52 1011.4
20260509042601 86 107 4.0 6.0 0.00 0.00 0.00 53 1011.4
20260509042505 86 140 4.0 6.0 0.00 0.00 0.00 52 1011.4
20260509042402 86 137 3.0 6.0 0.00 0.00 0.00 54 1011.4
20260509042202 86 165 2.0 6.0 0.00 0.00 0.00 54 1011.3
20260509042102 86 74 2.0 7.0 0.00 0.00 0.00 54 1011.4
20260509041901 85 169 3.0 7.0 0.00 0.00 0.00 54 1011.4
20260509041803 85 169 3.0 7.0 0.00 0.00 0.00 54 1011.3
20260509041702 85 183 3.0 7.0 0.00 0.00 0.00 54 1011.3
20260509041602 85 173 3.0 7.0 0.00 0.00 0.00 54 1011.3
20260509041504 85 144 3.0 7.0 0.00 0.00 0.00 54 1011.2
20260509041402 85 111 4.0 7.0 0.00 0.00 0.00 54 1011.3
20260509041303 85 140 3.0 7.0 0.00 0.00 0.00 54 1011.3
20260509041203 85 144 2.0 7.0 0.00 0.00 0.00 55 1011.3
20260509041102 85 184 3.0 7.0 0.00 0.00 0.00 55 1011.8
20260509040903 85 127 3.0 6.0 0.00 0.00 0.00 54 1011.3
20260509040803 85 176 3.0 6.0 0.00 0.00 0.00 55 1011.3
20260509040702 85 167 2.0 5.0 0.00 0.00 0.00 55 1011.2
20260509040603 84 209 2.0 5.0 0.00 0.00 0.00 55 1011.3
20260509040507 84 153 2.0 7.0 0.00 0.00 0.00 55 1011.3
20260509040359 84 168 2.0 7.0 0.00 0.00 0.00 55 1011.2
20260509040302 84 206 2.0 7.0 0.00 0.00 0.00 55 1011.2
20260509040203 84 183 2.0 7.0 0.00 0.00 0.00 54 1011.2
20260509040006 84 168 2.0 7.0 0.00 0.00 0.00 54 1011.2
20260509035903 84 182 3.0 7.0 0.00 0.00 0.00 55 1011.2
20260509035703 84 189 5.0 7.0 0.00 0.00 0.00 55 1011.2
20260509035503 84 177 5.0 7.0 0.00 0.00 0.00 55 1011.2
20260509035401 84 188 3.0 7.0 0.00 0.00 0.00 55 1011.2
20260509035305 84 204 3.0 7.0 0.00 0.00 0.00 56 1011.2
20260509035159 83 209 2.0 7.0 0.00 0.00 0.00 56 1011.2
20260509035103 83 176 2.0 7.0 0.00 0.00 0.00 56 1011.3
20260509035006 83 142 3.0 7.0 0.00 0.00 0.00 56 1011.3
20260509034903 83 138 4.0 7.0 0.00 0.00 0.00 55 1011.2
20260509034802 83 170 4.0 7.0 0.00 0.00 0.00 56 1011.3
20260509034702 83 175 4.0 7.0 0.00 0.00 0.00 56 1011.2
20260509034601 83 166 3.0 7.0 0.00 0.00 0.00 56 1011.2
20260509034401 83 168 3.0 5.0 0.00 0.00 0.00 56 1011.2
20260509034301 83 155 3.0 5.0 0.00 0.00 0.00 56 1011.2
20260509034202 83 185 3.0 5.0 0.00 0.00 0.00 56 1011.3
20260509034101 83 126 3.0 4.0 0.00 0.00 0.00 56 1011.3
20260509034004 83 128 3.0 4.0 0.00 0.00 0.00 57 1011.3
20260509033903 83 129 2.0 4.0 0.00 0.00 0.00 57 1011.2
20260509033801 83 130 1.0 3.0 0.00 0.00 0.00 57 1011.2
20260509033703 83 139 1.0 3.0 0.00 0.00 0.00 58 1011.3
20260509033503 83 257 2.0 3.0 0.00 0.00 0.00 57 1011.3
20260509033402 83 165 2.0 3.0 0.00 0.00 0.00 57 1011.3
20260509033301 83 163 1.0 3.0 0.00 0.00 0.00 57 1011.2
20260509033201 83 171 1.0 3.0 0.00 0.00 0.00 58 1011.2
20260509033101 83 148 1.0 3.0 0.00 0.00 0.00 57 1011.2
20260509032858 83 142 1.0 4.0 0.00 0.00 0.00 57 1011.2
20260509032802 83 128 1.0 4.0 0.00 0.00 0.00 57 1011.2
20260509032701 83 130 1.0 4.0 0.00 0.00 0.00 57 1011.3
20260509032603 83 159 1.0 4.0 0.00 0.00 0.00 57 1011.2
20260509032505 83 174 1.0 4.0 0.00 0.00 0.00 57 1011.2
20260509032406 83 148 2.0 4.0 0.00 0.00 0.00 57 1011.3
20260509032202 83 167 3.0 4.0 0.00 0.00 0.00 57 1011.2
20260509032102 83 165 3.0 5.0 0.00 0.00 0.00 57 1011.2
20260509032004 83 150 2.0 5.0 0.00 0.00 0.00 57 1011.1
20260509031902 83 171 2.0 5.0 0.00 0.00 0.00 57 1011.2
20260509031801 83 185 3.0 5.0 0.00 0.00 0.00 57 1011.2
20260509031702 83 163 3.0 4.0 0.00 0.00 0.00 57 1011.2
20260509031603 83 187 2.0 4.0 0.00 0.00 0.00 58 1011.2
20260509031505 83 186 2.0 4.0 0.00 0.00 0.00 58 1011.2
20260509031400 83 176 3.0 5.0 0.00 0.00 0.00 57 1011.2
20260509031302 83 176 4.0 5.0 0.00 0.00 0.00 57 1011.2
20260509031103 83 164 4.0 5.0 0.00 0.00 0.00 58 1011.1
20260509031004 83 157 2.0 5.0 0.00 0.00 0.00 59 1011.1
20260509030903 83 167 1.0 5.0 0.00 0.00 0.00 59 1011.1
20260509030803 83 205 2.0 5.0 0.00 0.00 0.00 59 1011.1
20260509030700 83 187 3.0 5.0 0.00 0.00 0.00 59 1011.1
20260509030504 83 207 2.0 5.0 0.00 0.00 0.00 60 1011.0
20260509030405 83 194 2.0 4.0 0.00 0.00 0.00 60 1011.0
20260509030009 82 182 2.0 3.0 0.00 0.00 0.00 60 1010.9
20260509025903 82 182 1.0 3.0 0.00 0.00 0.00 61 1010.9
20260509025802 82 160 0.0 1.0 0.00 0.00 0.00 61 1010.9
20260509025705 82 143 0.0 1.0 0.00 0.00 0.00 62 1010.9
20260509025602 82 129 0.0 2.0 0.00 0.00 0.00 62 1010.8
20260509025404 82 62 0.0 2.0 0.00 0.00 0.00 63 1010.8
20260509025306 82 62 0.0 2.0 0.00 0.00 0.00 63 1010.8
20260509025204 82 187 0.0 2.0 0.00 0.00 0.00 63 1010.8
20260509025006 82 100 0.0 2.0 0.00 0.00 0.00 63 1010.8
20260509024903 82 71 1.0 2.0 0.00 0.00 0.00 63 1010.8
20260509024804 81 113 1.0 2.0 0.00 0.00 0.00 62 1010.7
20260509024701 81 121 1.0 2.0 0.00 0.00 0.00 63 1010.7
20260509024604 81 124 1.0 2.0 0.00 0.00 0.00 63 1010.7
20260509024507 81 115 1.0 2.0 0.00 0.00 0.00 62 1010.6
20260509024403 81 106 1.0 2.0 0.00 0.00 0.00 62 1010.6
20260509024303 81 103 0.0 1.0 0.00 0.00 0.00 63 1010.6
20260509024203 81 24 0.0 0.0 0.00 0.00 0.00 64 1010.6
20260509024104 81 24 0.0 0.0 0.00 0.00 0.00 63 1010.7
20260509023804 81 24 0.0 0.0 0.00 0.00 0.00 64 1010.5
20260509023403 81 24 0.0 0.0 0.00 0.00 0.00 65 1010.4
20260509023303 81 24 0.0 0.0 0.00 0.00 0.00 64 1010.5
20260509023204 81 24 0.0 0.0 0.00 0.00 0.00 64 1010.5
20260509023103 81 24 0.0 0.0 0.00 0.00 0.00 65 1010.4
20260509023007 81 24 0.0 0.0 0.00 0.00 0.00 65 1010.4
20260509022904 81 24 0.0 1.0 0.00 0.00 0.00 65 1010.4
20260509022804 81 24 0.0 1.0 0.00 0.00 0.00 65 1010.4
20260509022704 81 24 0.0 2.0 0.00 0.00 0.00 65 1010.4
20260509022604 81 24 0.0 2.0 0.00 0.00 0.00 65 1010.3
20260509022505 81 24 0.0 2.0 0.00 0.00 0.00 65 1010.3
20260509022403 81 238 0.0 2.0 0.00 0.00 0.00 65 1010.3
20260509022306 81 217 0.0 2.0 0.00 0.00 0.00 65 1010.3
20260509022204 81 198 0.0 2.0 0.00 0.00 0.00 65 1010.3
20260509022103 81 198 1.0 2.0 0.00 0.00 0.00 65 1010.3
20260509022006 81 198 0.0 2.0 0.00 0.00 0.00 65 1010.3
20260509021704 81 191 0.0 1.0 0.00 0.00 0.00 64 1010.3
20260509021603 81 150 0.0 0.0 0.00 0.00 0.00 64 1010.4
20260509021505 81 150 0.0 0.0 0.00 0.00 0.00 64 1010.3
20260509021403 81 150 0.0 0.0 0.00 0.00 0.00 64 1010.4
20260509021301 81 119 0.0 0.0 0.00 0.00 0.00 64 1010.3
20260509021205 81 119 0.0 0.0 0.00 0.00 0.00 64 1010.3
20260509021007 80 119 0.0 0.0 0.00 0.00 0.00 63 1010.3
20260509020901 80 119 0.0 0.0 0.00 0.00 0.00 63 1010.2
20260509020803 80 119 0.0 0.0 0.00 0.00 0.00 63 1010.2
20260509020603 80 119 0.0 1.0 0.00 0.00 0.00 63 1010.2
20260509020503 80 119 0.0 1.0 0.00 0.00 0.00 63 1010.2
20260509020302 80 119 0.0 2.0 0.00 0.00 0.00 63 1010.1
20260509020202 80 95 0.0 2.0 0.00 0.00 0.00 63 1010.1
20260509020010 80 92 0.0 2.0 0.00 0.00 0.00 63 1010.2
20260509015902 80 126 0.0 2.0 0.00 0.00 0.00 63 1010.1
20260509015802 80 132 0.0 2.0 0.00 0.00 0.00 63 1010.1
20260509015705 80 77 1.0 2.0 0.00 0.00 0.00 63 1010.1
20260509015601 80 102 0.0 2.0 0.00 0.00 0.00 63 1010.0
20260509015504 80 118 0.0 3.0 0.00 0.00 0.00 63 1010.0
20260509015306 80 116 0.0 3.0 0.00 0.00 0.00 63 1010.0
20260509015203 80 107 0.0 3.0 0.00 0.00 0.00 63 1010.0
20260509015103 80 107 0.0 3.0 0.00 0.00 0.00 63 1009.9
20260509015005 80 107 1.0 3.0 0.00 0.00 0.00 63 1009.9
20260509014901 80 100 1.0 3.0 0.00 0.00 0.00 63 1010.0
20260509014804 80 119 1.0 3.0 0.00 0.00 0.00 63 1009.9
20260509014704 80 125 2.0 3.0 0.00 0.00 0.00 63 1009.9
20260509014602 80 126 1.0 3.0 0.00 0.00 0.00 63 1010.0
20260509014402 80 120 1.0 2.0 0.00 0.00 0.00 63 1009.9
20260509014301 80 96 1.0 2.0 0.00 0.00 0.00 63 1009.9
20260509014203 80 115 1.0 2.0 0.00 0.00 0.00 63 1009.8
20260509014102 80 88 1.0 2.0 0.00 0.00 0.00 64 1010.0
20260509014007 79 90 1.0 2.0 0.00 0.00 0.00 64 1010.0
20260509013903 79 107 1.0 2.0 0.00 0.00 0.00 64 1009.9
20260509013801 79 118 1.0 2.0 0.00 0.00 0.00 64 1009.9
20260509013701 79 109 1.0 2.0 0.00 0.00 0.00 64 1009.9
20260509013604 79 123 1.0 2.0 0.00 0.00 0.00 64 1009.9
20260509013204 79 128 0.0 1.0 0.00 0.00 0.00 64 1009.8
20260509013102 79 115 0.0 1.0 0.00 0.00 0.00 64 1009.8
20260509013004 79 113 0.0 2.0 0.00 0.00 0.00 65 1009.8
20260509012903 79 85 0.0 2.0 0.00 0.00 0.00 65 1009.8
20260509012803 79 78 0.0 2.0 0.00 0.00 0.00 65 1009.8
20260509012704 79 101 0.0 2.0 0.00 0.00 0.00 65 1009.8
20260509012604 79 114 0.0 2.0 0.00 0.00 0.00 65 1009.8
20260509012505 79 114 0.0 2.0 0.00 0.00 0.00 65 1009.8
20260509012404 79 80 0.0 2.0 0.00 0.00 0.00 65 1009.8
20260509012202 79 82 1.0 2.0 0.00 0.00 0.00 65 1009.8
20260509012104 79 80 1.0 2.0 0.00 0.00 0.00 65 1009.8
20260509012005 79 93 1.0 2.0 0.00 0.00 0.00 65 1009.7
20260509011804 79 63 1.0 2.0 0.00 0.00 0.00 65 1009.7
20260509011703 79 123 1.0 2.0 0.00 0.00 0.00 65 1009.7
20260509011604 79 83 1.0 2.0 0.00 0.00 0.00 65 1009.7
20260509011505 78 96 0.0 2.0 0.00 0.00 0.00 65 1009.7
20260509011406 78 29 0.0 2.0 0.00 0.00 0.00 65 1009.7
20260509011203 78 101 0.0 2.0 0.00 0.00 0.00 65 1009.6
20260509011104 78 99 1.0 2.0 0.00 0.00 0.00 66 1009.7
20260509011006 78 121 1.0 2.0 0.00 0.00 0.00 66 1009.6
20260509010903 78 136 0.0 2.0 0.00 0.00 0.00 66 1009.6
20260509010804 78 121 1.0 2.0 0.00 0.00 0.00 66 1009.6
20260509010704 78 121 1.0 2.0 0.00 0.00 0.00 66 1009.7
20260509010505 78 128 0.0 1.0 0.00 0.00 0.00 66 1009.6
20260509010405 78 140 0.0 2.0 0.00 0.00 0.00 66 1009.6
20260509010302 78 140 0.0 2.0 0.00 0.00 0.00 66 1009.6
20260509010203 78 132 0.0 2.0 0.00 0.00 0.00 66 1009.6
20260509010105 78 115 0.0 2.0 0.00 0.00 0.00 66 1009.5
20260509010007 78 115 0.0 2.0 0.00 0.00 0.00 66 1009.5
20260509005903 78 115 0.0 2.0 0.00 0.00 0.00 66 1009.5
20260509005703 78 171 1.0 2.0 0.00 0.00 0.00 66 1009.5
20260509005604 78 153 1.0 2.0 0.00 0.00 0.00 66 1009.5
20260509005506 78 159 0.0 2.0 0.00 0.00 0.00 66 1009.5
20260509005402 78 159 0.0 3.0 0.00 0.00 0.00 66 1009.4
20260509005204 78 92 0.0 3.0 0.00 0.00 0.00 66 1009.4
20260509005102 78 90 0.0 3.0 0.00 0.00 0.00 66 1009.4
20260509005006 78 90 0.0 3.0 0.00 0.00 0.00 66 1009.4
20260509004903 78 81 0.0 3.0 0.00 0.00 0.00 66 1009.4
20260509004801 78 82 1.0 3.0 0.00 0.00 0.00 66 1009.4
20260509004604 78 106 1.0 2.0 0.00 0.00 0.00 66 1009.4
20260509004403 78 80 0.0 2.0 0.00 0.00 0.00 66 1009.3
20260509004303 78 93 0.0 2.0 0.00 0.00 0.00 66 1009.4
20260509004203 78 86 0.0 2.0 0.00 0.00 0.00 66 1009.4
20260509004101 78 109 0.0 2.0 0.00 0.00 0.00 66 1009.4
20260509004006 78 109 0.0 2.0 0.00 0.00 0.00 66 1009.4
20260509003802 78 108 1.0 2.0 0.00 0.00 0.00 66 1009.4
20260509003703 78 86 1.0 2.0 0.00 0.00 0.00 66 1009.3
20260509003506 78 88 0.0 1.0 0.00 0.00 0.00 66 1009.4
20260509003401 78 138 0.0 1.0 0.00 0.00 0.00 66 1009.4
20260509003303 78 80 0.0 1.0 0.00 0.00 0.00 66 1009.3
20260509003203 78 84 0.0 1.0 0.00 0.00 0.00 66 1009.3
20260509003101 78 87 0.0 1.0 0.00 0.00 0.00 66 1009.2
20260509003007 78 88 0.0 2.0 0.00 0.00 0.00 66 1009.3
20260509002902 78 71 0.0 2.0 0.00 0.00 0.00 66 1009.2
20260509002802 78 72 0.0 2.0 0.00 0.00 0.00 66 1009.2
20260509002703 78 80 0.0 2.0 0.00 0.00 0.00 66 1009.2
20260509002603 78 50 0.0 2.0 0.00 0.00 0.00 66 1009.2
20260509002504 78 67 0.0 3.0 0.00 0.00 0.00 66 1009.2
20260509002402 78 88 0.0 3.0 0.00 0.00 0.00 66 1009.2
20260509002306 78 69 0.0 3.0 0.00 0.00 0.00 66 1009.2
20260509002205 78 92 0.0 3.0 0.00 0.00 0.00 66 1009.2
20260509002104 78 26 0.0 4.0 0.00 0.00 0.00 66 1009.2
20260509001904 78 87 0.0 4.0 0.00 0.00 0.00 66 1009.2
20260509001804 78 112 1.0 4.0 0.00 0.00 0.00 66 1009.1
20260509001703 78 58 1.0 4.0 0.00 0.00 0.00 66 1009.1
20260509001506 78 54 1.0 4.0 0.00 0.00 0.00 66 1009.1
20260509001403 79 147 1.0 4.0 0.00 0.00 0.00 66 1009.1
20260509001302 79 139 1.0 4.0 0.00 0.00 0.00 66 1009.1
20260509001203 79 139 0.0 2.0 0.00 0.00 0.00 66 1009.0
20260509001102 79 138 0.0 2.0 0.00 0.00 0.00 66 1009.0
20260509001004 79 132 0.0 2.0 0.00 0.00 0.00 66 1009.0
20260509000902 79 121 0.0 2.0 0.00 0.00 0.00 66 1009.0
20260509000803 79 116 0.0 2.0 0.00 0.00 0.00 66 1009.0
20260509000602 79 57 1.0 2.0 0.00 0.00 0.00 66 1008.9
20260509000505 79 78 1.0 2.0 0.00 0.00 0.00 66 1008.9
20260509000403 79 95 1.0 2.0 0.00 0.00 0.00 65 1008.9
20260509000204 79 91 0.0 2.0 0.00 0.00 0.00 65 1008.9
20260509000008 79 111 0.0 1.0 0.00 0.00 0.00 65 1008.8
20260508235902 79 95 0.0 4.0 0.00 0.00 0.00 65 1008.9
20260508235802 79 349 0.0 4.0 0.00 0.00 0.00 65 1008.8
20260508235602 79 42 0.0 4.0 0.00 0.00 0.00 65 1008.8
20260508235504 79 42 0.0 4.0 0.00 0.00 0.00 65 1008.7
20260508235403 79 49 0.0 4.0 0.00 0.00 0.00 65 1008.7
20260508235305 79 49 1.0 4.0 0.00 0.00 0.00 65 1008.8
20260508235202 79 77 1.0 4.0 0.00 0.00 0.00 65 1008.7
20260508235102 79 73 1.0 4.0 0.00 0.00 0.00 65 1008.7
20260508235006 79 54 0.0 2.0 0.00 0.00 0.00 65 1008.7
20260508234903 79 70 0.0 2.0 0.00 0.00 0.00 65 1008.7
20260508234804 79 35 0.0 2.0 0.00 0.00 0.00 65 1008.8
20260508234703 79 74 0.0 2.0 0.00 0.00 0.00 65 1008.6
20260508234603 79 87 1.0 2.0 0.00 0.00 0.00 65 1008.7
20260508234504 79 30 1.0 2.0 0.00 0.00 0.00 65 1008.7
20260508234402 79 44 0.0 2.0 0.00 0.00 0.00 65 1008.6
20260508234302 79 53 0.0 2.0 0.00 0.00 0.00 65 1008.6
20260508234202 79 53 0.0 2.0 0.00 0.00 0.00 65 1008.6
20260508234103 79 52 0.0 2.0 0.00 0.00 0.00 65 1008.6
20260508234005 79 52 0.0 2.0 0.00 0.00 0.00 65 1008.6
20260508233902 79 38 0.0 2.0 0.00 0.00 0.00 65 1008.6
20260508233801 79 46 1.0 2.0 0.00 0.00 0.00 65 1008.6
20260508233604 79 51 1.0 4.0 0.00 0.00 0.00 65 1008.6
20260508233505 79 54 1.0 4.0 0.00 0.00 0.00 65 1008.6
20260508233402 79 80 1.0 4.0 0.00 0.00 0.00 65 1008.6
20260508233303 79 58 0.0 4.0 0.00 0.00 0.00 65 1008.6
20260508233203 79 36 0.0 4.0 0.00 0.00 0.00 65 1008.5
20260508233103 79 9 1.0 4.0 0.00 0.00 0.00 64 1008.6
20260508233004 79 30 1.0 4.0 0.00 0.00 0.00 64 1008.6
20260508232803 79 51 1.0 3.0 0.00 0.00 0.00 64 1008.6
20260508232702 79 42 1.0 3.0 0.00 0.00 0.00 64 1008.5
20260508232601 79 72 1.0 3.0 0.00 0.00 0.00 64 1008.5
20260508232506 79 57 1.0 3.0 0.00 0.00 0.00 64 1008.5
20260508232403 79 44 2.0 3.0 0.00 0.00 0.00 64 1008.4
20260508232307 79 30 1.0 3.0 0.00 0.00 0.00 64 1008.4
20260508232202 79 13 0.0 2.0 0.00 0.00 0.00 64 1008.4
20260508232102 79 13 0.0 2.0 0.00 0.00 0.00 64 1008.4
20260508232005 79 13 0.0 2.0 0.00 0.00 0.00 64 1008.4
20260508231903 80 13 0.0 1.0 0.00 0.00 0.00 64 1008.4
20260508231802 80 13 0.0 1.0 0.00 0.00 0.00 64 1008.4
20260508231703 80 13 0.0 1.0 0.00 0.00 0.00 64 1008.4
20260508231203 80 13 0.0 1.0 0.00 0.00 0.00 64 1008.4
20260508231104 80 13 0.0 1.0 0.00 0.00 0.00 63 1008.4
20260508231004 80 13 0.0 1.0 0.00 0.00 0.00 63 1008.4
20260508230902 80 13 0.0 2.0 0.00 0.00 0.00 63 1008.4
20260508230801 80 13 0.0 2.0 0.00 0.00 0.00 63 1008.4
20260508230703 80 13 0.0 2.0 0.00 0.00 0.00 63 1008.5
20260508230601 80 13 0.0 2.0 0.00 0.00 0.00 63 1008.4
20260508230504 80 13 0.0 2.0 0.00 0.00 0.00 63 1008.4
20260508230403 80 13 0.0 2.0 0.00 0.00 0.00 63 1008.3
20260508230302 80 13 0.0 2.0 0.00 0.00 0.00 63 1008.3
20260508230202 80 20 0.0 2.0 0.00 0.00 0.00 63 1008.4
20260508230007 80 23 0.0 1.0 0.00 0.00 0.00 63 1008.4
20260508225902 80 19 0.0 2.0 0.00 0.00 0.00 63 1008.4
20260508225802 80 19 0.0 2.0 0.00 0.00 0.00 63 1008.3
20260508225702 80 19 0.0 2.0 0.00 0.00 0.00 63 1008.4
20260508225604 80 19 0.0 3.0 0.00 0.00 0.00 63 1008.4
20260508225504 80 24 0.0 3.0 0.00 0.00 0.00 63 1008.3
20260508225401 80 24 0.0 3.0 0.00 0.00 0.00 63 1008.4
20260508225301 80 31 0.0 3.0 0.00 0.00 0.00 62 1008.4
20260508225201 80 19 0.0 3.0 0.00 0.00 0.00 62 1008.4
20260508225103 80 42 0.0 3.0 0.00 0.00 0.00 62 1008.4
20260508225005 80 42 1.0 3.0 0.00 0.00 0.00 62 1008.3
20260508224903 80 42 1.0 3.0 0.00 0.00 0.00 62 1008.3
20260508224802 80 42 0.0 3.0 0.00 0.00 0.00 62 1008.4
20260508224704 80 42 1.0 3.0 0.00 0.00 0.00 62 1008.4
20260508224603 80 75 1.0 3.0 0.00 0.00 0.00 62 1008.3
20260508224504 80 51 0.0 0.0 0.00 0.00 0.00 62 1008.3
20260508224402 80 59 0.0 0.0 0.00 0.00 0.00 62 1008.3
20260508224202 80 46 0.0 0.0 0.00 0.00 0.00 63 1008.3
20260508224103 80 87 0.0 0.0 0.00 0.00 0.00 63 1008.2
20260508224003 80 71 0.0 0.0 0.00 0.00 0.00 63 1008.4
20260508223902 80 89 0.0 0.0 0.00 0.00 0.00 63 1008.3
20260508223802 80 50 0.0 0.0 0.00 0.00 0.00 63 1008.4
20260508223701 80 50 0.0 0.0 0.00 0.00 0.00 63 1008.3
20260508223602 80 50 0.0 0.0 0.00 0.00 0.00 63 1008.3
20260508223402 80 70 0.0 0.0 0.00 0.00 0.00 63 1008.3
20260508223301 80 70 0.0 0.0 0.00 0.00 0.00 63 1008.3
20260508223202 80 70 0.0 0.0 0.00 0.00 0.00 63 1008.3
20260508223103 80 44 0.0 0.0 0.00 0.00 0.00 63 1008.3
20260508223006 80 68 0.0 0.0 0.00 0.00 0.00 63 1008.4
20260508222803 80 82 0.0 0.0 0.00 0.00 0.00 63 1008.3
20260508222703 80 77 0.0 0.0 0.00 0.00 0.00 63 1008.3
20260508222601 80 71 0.0 0.0 0.00 0.00 0.00 63 1008.3
20260508222503 80 61 0.0 0.0 0.00 0.00 0.00 63 1008.3
20260508222402 80 77 0.0 0.0 0.00 0.00 0.00 63 1008.3
20260508222204 80 21 0.0 0.0 0.00 0.00 0.00 63 1008.3
20260508221901 80 21 0.0 0.0 0.00 0.00 0.00 63 1008.4
20260508221802 80 21 0.0 0.0 0.00 0.00 0.00 63 1008.3
20260508221701 80 21 0.0 0.0 0.00 0.00 0.00 63 1008.3
20260508221601 80 21 0.0 0.0 0.00 0.00 0.00 63 1008.3
20260508221503 80 21 0.0 0.0 0.00 0.00 0.00 63 1008.4
20260508221402 80 21 0.0 0.0 0.00 0.00 0.00 63 1008.4
20260508221303 80 21 0.0 0.0 0.00 0.00 0.00 63 1008.4
20260508221201 80 21 0.0 0.0 0.00 0.00 0.00 63 1008.4
20260508221101 80 21 0.0 0.0 0.00 0.00 0.00 62 1008.3
20260508221006 80 21 0.0 0.0 0.00 0.00 0.00 62 1008.4
20260508220801 80 21 0.0 0.0 0.00 0.00 0.00 62 1008.3
20260508220701 80 21 0.0 0.0 0.00 0.00 0.00 62 1008.4
20260508220602 80 21 0.0 0.0 0.00 0.00 0.00 62 1008.4
20260508220505 80 21 0.0 1.0 0.00 0.00 0.00 62 1008.4
20260508220402 80 21 0.0 1.0 0.00 0.00 0.00 62 1008.4
20260508220202 80 21 0.0 2.0 0.00 0.00 0.00 62 1008.3
20260508220004 80 21 0.0 2.0 0.00 0.00 0.00 62 1008.4
20260508215801 80 21 0.0 2.0 0.00 0.00 0.00 62 1008.3
20260508215601 80 21 1.0 2.0 0.00 0.00 0.00 62 1008.4
20260508215503 80 21 1.0 2.0 0.00 0.00 0.00 62 1008.3
20260508215403 80 19 0.0 1.0 0.00 0.00 0.00 62 1008.3
20260508215306 80 32 0.0 1.0 0.00 0.00 0.00 62 1008.4
20260508215101 80 32 0.0 1.0 0.00 0.00 0.00 64 1008.4
20260508215007 80 32 0.0 0.0 0.00 0.00 0.00 64 1008.4
20260508214901 80 32 0.0 0.0 0.00 0.00 0.00 64 1008.4
20260508214603 80 32 0.0 0.0 0.00 0.00 0.00 63 1008.4
20260508214506 80 32 0.0 0.0 0.00 0.00 0.00 63 1008.4
20260508214404 80 32 0.0 0.0 0.00 0.00 0.00 63 1008.5
20260508214303 80 32 0.0 0.0 0.00 0.00 0.00 63 1008.5
20260508214202 80 32 0.0 0.0 0.00 0.00 0.00 63 1008.5
20260508214102 80 32 0.0 0.0 0.00 0.00 0.00 63 1008.5
20260508213901 80 32 0.0 0.0 0.00 0.00 0.00 63 1008.6
20260508213703 80 32 0.0 0.0 0.00 0.00 0.00 63 1008.6
20260508213603 80 32 0.0 0.0 0.00 0.00 0.00 63 1008.6
20260508213504 80 32 0.0 0.0 0.00 0.00 0.00 63 1008.6
20260508213401 80 32 0.0 0.0 0.00 0.00 0.00 63 1008.6
20260508213303 80 32 0.0 0.0 0.00 0.00 0.00 63 1008.6
20260508213105 80 32 0.0 0.0 0.00 0.00 0.00 63 1008.6
20260508213004 80 32 0.0 0.0 0.00 0.00 0.00 63 1008.7
20260508212801 80 32 0.0 0.0 0.00 0.00 0.00 63 1008.7
20260508212706 80 32 0.0 0.0 0.00 0.00 0.00 63 1008.7
20260508212603 80 32 0.0 0.0 0.00 0.00 0.00 63 1008.7
20260508212507 80 32 0.0 0.0 0.00 0.00 0.00 63 1008.7
20260508212406 80 32 0.0 1.0 0.00 0.00 0.00 63 1008.7
20260508212306 80 32 0.0 1.0 0.00 0.00 0.00 63 1008.7
20260508212203 80 32 0.0 1.0 0.00 0.00 0.00 63 1008.7
20260508212103 80 32 0.0 1.0 0.00 0.00 0.00 63 1008.8
20260508212006 80 32 0.0 1.0 0.00 0.00 0.00 63 1008.8
20260508211903 80 32 0.0 1.0 0.00 0.00 0.00 62 1008.7
20260508211802 80 32 0.0 1.0 0.00 0.00 0.00 62 1008.8
20260508211702 80 32 0.0 1.0 0.00 0.00 0.00 62 1008.8
20260508211602 80 32 0.0 1.0 0.00 0.00 0.00 62 1008.9
20260508211504 80 32 0.0 1.0 0.00 0.00 0.00 62 1008.8
20260508211359 80 27 0.0 1.0 0.00 0.00 0.00 62 1008.8
20260508211302 80 29 0.0 1.0 0.00 0.00 0.00 63 1008.8
20260508211203 80 29 0.0 1.0 0.00 0.00 0.00 63 1008.8
20260508211102 80 23 0.0 1.0 0.00 0.00 0.00 63 1008.8
20260508211007 80 23 0.0 1.0 0.00 0.00 0.00 63 1008.9
20260508210902 80 337 0.0 1.0 0.00 0.00 0.00 63 1008.9
20260508210803 80 337 0.0 1.0 0.00 0.00 0.00 63 1008.9
20260508210602 80 337 0.0 0.0 0.00 0.00 0.00 64 1008.8
20260508210506 80 337 0.0 0.0 0.00 0.00 0.00 64 1008.8
20260508210402 80 337 0.0 0.0 0.00 0.00 0.00 64 1008.8
20260508210304 80 337 0.0 0.0 0.00 0.00 0.00 64 1008.8
20260508210202 80 337 0.0 0.0 0.00 0.00 0.00 64 1008.9
20260508210008 80 337 0.0 1.0 0.00 0.00 0.00 64 1008.9
20260508205902 80 337 0.0 1.0 0.00 0.00 0.00 64 1008.9
20260508205704 80 337 0.0 1.0 0.00 0.00 0.00 64 1009.0
20260508205601 80 337 0.0 1.0 0.00 0.00 0.00 63 1008.9
20260508205503 80 337 0.0 1.0 0.00 0.00 0.00 63 1008.9
20260508205403 80 337 0.0 1.0 0.00 0.00 0.00 63 1008.9
20260508205202 80 337 0.0 0.0 0.00 0.00 0.00 63 1008.9
20260508205102 80 337 0.0 0.0 0.00 0.00 0.00 63 1008.9
20260508205004 80 337 0.0 0.0 0.00 0.00 0.00 63 1008.9
20260508204902 80 337 0.0 0.0 0.00 0.00 0.00 63 1008.9
20260508204702 80 337 0.0 0.0 0.00 0.00 0.00 63 1008.9
20260508204602 80 337 0.0 0.0 0.00 0.00 0.00 63 1008.9
20260508204505 80 337 0.0 0.0 0.00 0.00 0.00 63 1008.9
20260508204302 80 337 0.0 0.0 0.00 0.00 0.00 63 1008.9
20260508204201 80 337 0.0 0.0 0.00 0.00 0.00 63 1008.9
20260508204103 80 337 0.0 0.0 0.00 0.00 0.00 63 1008.9
20260508204005 80 337 0.0 0.0 0.00 0.00 0.00 63 1008.9
20260508203903 80 337 0.0 0.0 0.00 0.00 0.00 63 1008.9
20260508203703 80 337 0.0 0.0 0.00 0.00 0.00 63 1008.9
20260508203601 80 337 0.0 0.0 0.00 0.00 0.00 63 1008.9
20260508203404 80 337 0.0 0.0 0.00 0.00 0.00 63 1008.9
20260508203302 80 337 0.0 0.0 0.00 0.00 0.00 63 1008.9
20260508203203 80 337 0.0 0.0 0.00 0.00 0.00 63 1008.9
20260508203102 80 337 0.0 0.0 0.00 0.00 0.00 62 1008.9
20260508203007 80 337 0.0 0.0 0.00 0.00 0.00 62 1008.9
20260508202901 80 337 0.0 0.0 0.00 0.00 0.00 62 1008.9
20260508202702 80 337 0.0 0.0 0.00 0.00 0.00 62 1009.0
20260508202605 80 337 0.0 0.0 0.00 0.00 0.00 62 1009.0
20260508202306 80 337 0.0 0.0 0.00 0.00 0.00 62 1009.0
20260508202202 80 337 0.0 0.0 0.00 0.00 0.00 62 1009.0
20260508202104 80 337 0.0 0.0 0.00 0.00 0.00 62 1009.0
20260508202005 80 337 0.0 0.0 0.00 0.00 0.00 62 1009.0
20260508201902 80 337 0.0 0.0 0.00 0.00 0.00 62 1009.0
20260508201802 80 337 0.0 0.0 0.00 0.00 0.00 62 1009.0
20260508201703 80 337 0.0 1.0 0.00 0.00 0.00 62 1009.0
20260508201602 80 337 0.0 1.0 0.00 0.00 0.00 62 1009.0
20260508201505 80 337 0.0 1.0 0.00 0.00 0.00 62 1009.0
20260508201403 80 337 0.0 1.0 0.00 0.00 0.00 61 1009.0
20260508201202 80 337 0.0 1.0 0.00 0.00 0.00 61 1009.0
20260508201005 80 337 0.0 1.0 0.00 0.00 0.00 61 1009.0
20260508200904 80 337 0.0 1.0 0.00 0.00 0.00 61 1009.0
20260508200802 80 337 0.0 1.0 0.00 0.00 0.00 61 1009.0
20260508200701 80 337 0.0 2.0 0.00 0.00 0.00 61 1009.0
20260508200602 80 337 0.0 2.0 0.00 0.00 0.00 61 1009.0
20260508200505 80 337 0.0 2.0 0.00 0.00 0.00 61 1008.9
20260508200404 80 337 0.0 2.0 0.00 0.00 0.00 60 1008.9
20260508200303 80 337 0.0 2.0 0.00 0.00 0.00 60 1009.1
20260508200201 80 337 0.0 2.0 0.00 0.00 0.00 60 1009.0
20260508200103 80 337 0.0 2.0 0.00 0.00 0.00 60 1009.0
20260508200010 80 337 0.0 2.0 0.00 0.00 0.00 60 1009.0
20260508195904 80 337 1.0 3.0 0.00 0.00 0.00 60 1009.1
20260508195804 80 348 1.0 3.0 0.00 0.00 0.00 60 1009.0
20260508195703 80 355 0.0 3.0 0.00 0.00 0.00 60 1009.1
20260508195603 80 5 0.0 3.0 0.00 0.00 0.00 59 1009.1
20260508195504 80 360 0.0 3.0 0.00 0.00 0.00 59 1009.1
20260508195404 80 26 1.0 3.0 0.00 0.00 0.00 59 1009.1
20260508195306 81 350 1.0 3.0 0.00 0.00 0.00 59 1009.1
20260508195203 81 348 0.0 3.0 0.00 0.00 0.00 59 1009.1
20260508195103 81 348 1.0 3.0 0.00 0.00 0.00 59 1009.1
20260508194904 81 355 0.0 2.0 0.00 0.00 0.00 58 1009.1
20260508194704 81 355 0.0 2.0 0.00 0.00 0.00 58 1009.1
20260508194604 81 355 0.0 2.0 0.00 0.00 0.00 58 1009.1
20260508194402 81 346 0.0 2.0 0.00 0.00 0.00 57 1009.2
20260508194304 81 346 0.0 3.0 0.00 0.00 0.00 57 1009.2
20260508194203 81 346 0.0 3.0 0.00 0.00 0.00 57 1009.2
20260508194105 81 346 0.0 3.0 0.00 0.00 0.00 57 1009.1
20260508194005 81 346 0.0 3.0 0.00 0.00 0.00 57 1009.1
20260508193904 81 346 0.0 3.0 0.00 0.00 0.00 57 1009.1
20260508193804 81 346 0.0 3.0 0.00 0.00 0.00 57 1009.1
20260508193704 81 346 1.0 3.0 0.00 0.00 0.00 57 1009.2
20260508193605 81 355 2.0 3.0 0.00 0.00 0.00 56 1009.2
20260508193507 81 355 1.0 3.0 0.00 0.00 0.00 56 1009.2
20260508193305 81 350 0.0 2.0 0.00 0.00 0.00 56 1009.2
20260508193204 81 350 0.0 2.0 0.00 0.00 0.00 56 1009.2
20260508193103 81 350 0.0 2.0 0.00 0.00 0.00 56 1009.3
20260508192904 82 350 1.0 2.0 0.00 0.00 0.00 56 1009.2
20260508192803 82 350 1.0 2.0 0.00 0.00 0.00 56 1009.2
20260508192704 82 350 1.0 2.0 0.00 0.00 0.00 56 1009.3
20260508192604 82 350 0.0 1.0 0.00 0.00 0.00 56 1009.2
20260508192405 82 350 1.0 1.0 0.00 0.00 0.00 56 1009.2
20260508192305 82 350 1.0 1.0 0.00 0.00 0.00 56 1009.3
20260508192203 82 350 1.0 1.0 0.00 0.00 0.00 56 1009.3
20260508192104 82 350 0.0 1.0 0.00 0.00 0.00 56 1009.3
20260508191804 82 350 1.0 1.0 0.00 0.00 0.00 55 1009.3
20260508191702 82 21 0.0 1.0 0.00 0.00 0.00 55 1009.3
20260508191602 82 21 0.0 1.0 0.00 0.00 0.00 55 1009.3
20260508191404 82 21 0.0 1.0 0.00 0.00 0.00 55 1009.2
20260508191302 82 21 0.0 1.0 0.00 0.00 0.00 55 1009.3
20260508191204 82 21 0.0 1.0 0.00 0.00 0.00 55 1009.2
20260508191104 82 21 0.0 1.0 0.00 0.00 0.00 54 1009.2
20260508191007 82 21 0.0 1.0 0.00 0.00 0.00 54 1009.2
20260508190903 83 20 0.0 1.0 0.00 0.00 0.00 55 1009.2
20260508190803 83 16 0.0 1.0 0.00 0.00 0.00 55 1009.2
20260508190704 83 24 0.0 1.0 0.00 0.00 0.00 55 1009.2
20260508190604 83 24 0.0 1.0 0.00 0.00 0.00 55 1009.2
20260508190506 83 24 0.0 1.0 0.00 0.00 0.00 55 1009.2
20260508190205 83 24 0.0 1.0 0.00 0.00 0.00 54 1009.2
20260508190104 83 24 0.0 1.0 0.00 0.00 0.00 54 1009.2
20260508190006 83 24 0.0 0.0 0.00 0.00 0.00 54 1009.3
20260508185704 83 24 0.0 0.0 0.00 0.00 0.00 53 1009.4
20260508185603 83 24 0.0 0.0 0.00 0.00 0.00 53 1009.4
20260508185403 83 24 0.0 0.0 0.00 0.00 0.00 53 1009.4
20260508185306 83 28 0.0 0.0 0.00 0.00 0.00 53 1009.4
20260508185102 83 28 0.0 0.0 0.00 0.00 0.00 53 1009.4
20260508185006 83 28 0.0 0.0 0.00 0.00 0.00 52 1009.4
20260508184903 83 28 0.0 0.0 0.00 0.00 0.00 52 1009.4
20260508184803 83 28 0.0 0.0 0.00 0.00 0.00 52 1009.4
20260508184703 83 28 0.0 1.0 0.00 0.00 0.00 52 1009.4
20260508184602 83 28 0.0 1.0 0.00 0.00 0.00 52 1009.4
20260508184505 83 28 0.0 1.0 0.00 0.00 0.00 52 1009.4
20260508184403 83 28 0.0 1.0 0.00 0.00 0.00 52 1009.4
20260508184302 83 28 0.0 1.0 0.00 0.00 0.00 52 1009.4
20260508184203 83 28 0.0 2.0 0.00 0.00 0.00 52 1009.4
20260508184102 83 28 0.0 3.0 0.00 0.00 0.00 52 1009.5
20260508184007 83 28 0.0 3.0 0.00 0.00 0.00 51 1009.4
20260508183803 83 28 0.0 3.0 0.00 0.00 0.00 51 1009.4
20260508183603 83 28 0.0 4.0 0.00 0.00 0.00 51 1009.4
20260508183504 83 28 0.0 4.0 0.00 0.00 0.00 51 1009.5
20260508183403 83 71 1.0 4.0 0.00 0.00 0.00 51 1009.4
20260508183303 83 61 2.0 4.0 0.00 0.00 0.00 51 1009.5
20260508183202 83 74 2.0 4.0 0.00 0.00 0.00 51 1009.5
20260508183103 83 52 1.0 4.0 0.00 0.00 0.00 51 1009.5
20260508183005 83 73 1.0 4.0 0.00 0.00 0.00 51 1009.5
20260508182903 83 40 1.0 4.0 0.00 0.00 0.00 50 1009.6
20260508182803 83 41 0.0 4.0 0.00 0.00 0.00 51 1009.6
20260508182703 83 70 1.0 4.0 0.00 0.00 0.00 50 1009.5
20260508182603 83 53 1.0 4.0 0.00 0.00 0.00 50 1009.6
20260508182504 83 63 1.0 4.0 0.00 0.00 0.00 50 1009.6
20260508182403 83 111 1.0 4.0 0.00 0.00 0.00 50 1009.5
20260508182306 84 71 1.0 4.0 0.00 0.00 0.00 50 1009.5
20260508182202 84 69 1.0 4.0 0.00 0.00 0.00 50 1009.5
20260508182103 84 55 1.0 3.0 0.00 0.00 0.00 50 1009.5
20260508181902 84 88 1.0 3.0 0.00 0.00 0.00 50 1009.6
20260508181603 84 95 1.0 3.0 0.00 0.00 0.00 50 1009.6
20260508181504 84 67 1.0 3.0 0.00 0.00 0.00 50 1009.5
20260508181302 84 105 0.0 3.0 0.00 0.00 0.00 50 1009.6
20260508181203 84 72 1.0 3.0 0.00 0.00 0.00 50 1009.5
20260508181103 84 107 0.0 3.0 0.00 0.00 0.00 50 1009.6
20260508181006 84 84 1.0 3.0 0.00 0.00 0.00 50 1009.5
20260508180903 84 74 2.0 3.0 0.00 0.00 0.00 50 1009.5
20260508180803 84 82 1.0 3.0 0.00 0.00 0.00 50 1009.5
20260508180703 84 120 1.0 3.0 0.00 0.00 0.00 50 1009.5
20260508180505 84 81 2.0 3.0 0.00 0.00 0.00 50 1009.5
20260508180303 84 90 2.0 3.0 0.00 0.00 0.00 49 1009.5
20260508180202 84 107 1.0 3.0 0.00 0.00 0.00 49 1009.5
20260508180103 84 101 1.0 3.0 0.00 0.00 0.00 49 1009.5
20260508180007 84 88 1.0 3.0 0.00 0.00 0.00 49 1009.5
20260508175903 84 93 1.0 3.0 0.00 0.00 0.00 49 1009.6
20260508175803 84 63 1.0 3.0 0.00 0.00 0.00 49 1009.6
20260508175703 84 50 1.0 3.0 0.00 0.00 0.00 49 1009.6
20260508175602 84 71 0.0 3.0 0.00 0.00 0.00 49 1009.6
20260508175504 84 87 0.0 3.0 0.00 0.00 0.00 49 1009.7
20260508175402 84 87 1.0 3.0 0.00 0.00 0.00 49 1009.7
20260508175305 84 92 2.0 3.0 0.00 0.00 0.00 49 1009.7
20260508175202 84 104 1.0 3.0 0.00 0.00 0.00 49 1009.7
20260508175102 84 102 1.0 3.0 0.00 0.00 0.00 49 1009.7
20260508175006 84 88 1.0 4.0 0.00 0.00 0.00 49 1009.7
20260508174903 85 86 1.0 4.0 0.00 0.00 0.00 49 1009.7
20260508174703 85 99 1.0 4.0 0.00 0.00 0.00 49 1009.6
20260508174604 85 90 1.0 4.0 0.00 0.00 0.00 49 1009.8
20260508174505 85 77 1.0 4.0 0.00 0.00 0.00 49 1009.8
20260508174405 85 94 1.0 4.0 0.00 0.00 0.00 49 1009.8
20260508174302 85 105 2.0 4.0 0.00 0.00 0.00 49 1009.8
20260508174202 85 90 2.0 4.0 0.00 0.00 0.00 49 1009.7
20260508174103 85 90 1.0 3.0 0.00 0.00 0.00 49 1009.8
20260508174007 85 66 1.0 3.0 0.00 0.00 0.00 49 1009.8
20260508173903 85 68 1.0 3.0 0.00 0.00 0.00 49 1009.8
20260508173802 85 96 1.0 3.0 0.00 0.00 0.00 49 1009.9
20260508173705 85 55 1.0 3.0 0.00 0.00 0.00 49 1009.8
20260508173603 85 103 1.0 3.0 0.00 0.00 0.00 48 1009.8
20260508173505 85 82 1.0 3.0 0.00 0.00 0.00 48 1009.9
20260508173402 85 76 1.0 3.0 0.00 0.00 0.00 48 1009.8
20260508173303 85 101 1.0 3.0 0.00 0.00 0.00 48 1009.9
20260508173202 85 71 1.0 3.0 0.00 0.00 0.00 48 1009.8
20260508173103 85 93 1.0 3.0 0.00 0.00 0.00 48 1009.8
20260508173006 85 85 1.0 3.0 0.00 0.00 0.00 48 1009.8
20260508172903 85 94 0.0 3.0 0.00 0.00 0.00 48 1009.8
20260508172803 85 128 1.0 3.0 0.00 0.00 0.00 48 1009.8
20260508172703 85 89 2.0 3.0 0.00 0.00 0.00 48 1009.8
20260508172603 85 110 2.0 3.0 0.00 0.00 0.00 48 1009.8
20260508172508 85 107 1.0 3.0 0.00 0.00 0.00 48 1009.8
20260508172307 85 91 1.0 3.0 0.00 0.00 0.00 48 1009.9
20260508172203 85 87 1.0 3.0 0.00 0.00 0.00 48 1009.9
20260508172103 85 104 1.0 3.0 0.00 0.00 0.00 48 1009.8
20260508172006 85 74 1.0 3.0 0.00 0.00 0.00 48 1009.9
20260508171904 85 90 1.0 4.0 0.00 0.00 0.00 48 1009.9
20260508171803 85 83 1.0 4.0 0.00 0.00 0.00 48 1009.8
20260508171702 85 79 1.0 4.0 0.00 0.00 0.00 48 1009.9
20260508171603 85 97 1.0 4.0 0.00 0.00 0.00 48 1009.8
20260508171504 85 74 1.0 4.0 0.00 0.00 0.00 48 1009.8
20260508171403 85 120 1.0 4.0 0.00 0.00 0.00 48 1009.8
20260508171304 85 132 1.0 4.0 0.00 0.00 0.00 48 1009.7
20260508171203 85 107 2.0 4.0 0.00 0.00 0.00 48 1009.8
20260508171006 85 135 2.0 4.0 0.00 0.00 0.00 48 1009.8
20260508170803 85 98 2.0 5.0 0.00 0.00 0.00 48 1009.8
20260508170703 85 144 1.0 5.0 0.00 0.00 0.00 48 1009.8
20260508170603 85 97 1.0 5.0 0.00 0.00 0.00 48 1009.7
20260508170505 85 111 2.0 5.0 0.00 0.00 0.00 48 1009.7
20260508170304 85 115 2.0 5.0 0.00 0.00 0.00 48 1009.8
20260508170006 85 108 2.0 5.0 0.00 0.00 0.00 48 1009.7
20260508165903 85 109 2.0 4.0 0.00 0.00 0.00 48 1009.8
20260508165802 85 80 3.0 4.0 0.00 0.00 0.00 48 1009.8
20260508165602 85 80 2.0 4.0 0.00 0.00 0.00 48 1009.8
20260508165505 85 103 2.0 4.0 0.00 0.00 0.00 48 1009.8
20260508165402 85 97 2.0 4.0 0.00 0.00 0.00 48 1009.9
20260508165306 85 157 2.0 4.0 0.00 0.00 0.00 48 1009.8
20260508165203 85 120 2.0 4.0 0.00 0.00 0.00 48 1009.7
20260508165103 85 100 2.0 7.0 0.00 0.00 0.00 48 1009.8
20260508165006 85 109 2.0 7.0 0.00 0.00 0.00 48 1009.8
20260508164803 85 103 2.0 7.0 0.00 0.00 0.00 47 1009.7
20260508164703 85 127 2.0 7.0 0.00 0.00 0.00 48 1009.8
20260508164506 85 123 2.0 7.0 0.00 0.00 0.00 48 1009.7
20260508164403 85 103 3.0 7.0 0.00 0.00 0.00 48 1009.7
20260508164304 85 105 3.0 7.0 0.00 0.00 0.00 48 1009.8
20260508164203 85 110 3.0 7.0 0.00 0.00 0.00 48 1009.8
20260508164103 85 90 4.0 7.0 0.00 0.00 0.00 48 1009.8
20260508164006 85 98 3.0 7.0 0.00 0.00 0.00 48 1009.7
20260508163903 85 104 3.0 7.0 0.00 0.00 0.00 48 1009.8
20260508163803 85 83 2.0 6.0 0.00 0.00 0.00 48 1009.7
20260508163604 85 109 2.0 6.0 0.00 0.00 0.00 48 1009.7
20260508163505 85 120 1.0 4.0 0.00 0.00 0.00 48 1009.8
20260508163402 85 97 2.0 4.0 0.00 0.00 0.00 48 1009.8
20260508163203 85 121 2.0 4.0 0.00 0.00 0.00 48 1009.8
20260508163102 85 109 2.0 4.0 0.00 0.00 0.00 48 1009.8
20260508163006 85 115 2.0 4.0 0.00 0.00 0.00 48 1009.8
20260508162802 85 121 2.0 4.0 0.00 0.00 0.00 48 1009.8
20260508162703 86 126 2.0 4.0 0.00 0.00 0.00 48 1009.8
20260508162602 86 112 2.0 4.0 0.00 0.00 0.00 48 1009.8
20260508162504 86 128 2.0 4.0 0.00 0.00 0.00 48 1009.8
20260508162403 86 132 2.0 4.0 0.00 0.00 0.00 48 1009.8
20260508162306 86 127 2.0 4.0 0.00 0.00 0.00 48 1009.8
20260508162203 86 101 2.0 4.0 0.00 0.00 0.00 48 1009.8
20260508161903 86 105 2.0 4.0 0.00 0.00 0.00 48 1009.8
20260508161802 86 108 2.0 4.0 0.00 0.00 0.00 48 1009.8
20260508161703 86 103 2.0 4.0 0.00 0.00 0.00 48 1009.8
20260508161602 86 94 2.0 4.0 0.00 0.00 0.00 48 1009.8
20260508161402 86 111 2.0 4.0 0.00 0.00 0.00 48 1009.8
20260508161303 86 84 3.0 4.0 0.00 0.00 0.00 48 1009.9
20260508161203 86 97 2.0 4.0 0.00 0.00 0.00 48 1009.8
20260508161103 86 109 2.0 4.0 0.00 0.00 0.00 48 1009.8
20260508161005 86 106 2.0 6.0 0.00 0.00 0.00 48 1009.8
20260508160902 86 85 2.0 6.0 0.00 0.00 0.00 48 1009.9
20260508160803 86 80 2.0 6.0 0.00 0.00 0.00 48 1009.8
20260508160702 86 136 2.0 6.0 0.00 0.00 0.00 48 1009.8
20260508160603 86 112 2.0 6.0 0.00 0.00 0.00 47 1009.8
20260508160506 86 89 2.0 6.0 0.00 0.00 0.00 47 1009.8
20260508160406 86 129 2.0 6.0 0.00 0.00 0.00 47 1009.8
20260508160303 86 119 2.0 6.0 0.00 0.00 0.00 47 1009.7
20260508160203 86 103 2.0 6.0 0.00 0.00 0.00 47 1009.8
20260508160005 86 123 2.0 6.0 0.00 0.00 0.00 47 1009.8
20260508155902 86 113 2.0 6.0 0.00 0.00 0.00 47 1009.7
20260508155803 86 90 2.0 6.0 0.00 0.00 0.00 47 1009.7
20260508155702 86 117 2.0 6.0 0.00 0.00 0.00 47 1009.7
20260508155602 86 135 3.0 6.0 0.00 0.00 0.00 47 1009.7
20260508155504 86 84 2.0 6.0 0.00 0.00 0.00 47 1009.7
20260508155403 86 97 2.0 6.0 0.00 0.00 0.00 47 1009.7
20260508155305 86 96 2.0 5.0 0.00 0.00 0.00 47 1009.7
20260508155204 86 92 2.0 5.0 0.00 0.00 0.00 47 1009.7
20260508155103 86 139 2.0 5.0 0.00 0.00 0.00 47 1009.7
20260508155005 86 92 2.0 5.0 0.00 0.00 0.00 47 1009.6
20260508154903 86 111 3.0 6.0 0.00 0.00 0.00 47 1009.6
20260508154702 86 138 2.0 6.0 0.00 0.00 0.00 47 1009.6
20260508154602 86 96 2.0 6.0 0.00 0.00 0.00 47 1009.6
20260508154518 86 110 3.0 6.0 0.00 0.00 0.00 48 1009.7
20260508154402 86 131 3.0 6.0 0.00 0.00 0.00 48 1009.6
20260508154203 86 116 1.0 7.0 0.00 0.00 0.00 48 1009.6
20260508154006 86 88 3.0 7.0 0.00 0.00 0.00 48 1009.6
20260508153903 86 107 3.0 7.0 0.00 0.00 0.00 48 1009.6
20260508153802 86 105 2.0 7.0 0.00 0.00 0.00 48 1009.5
20260508153703 86 85 3.0 7.0 0.00 0.00 0.00 48 1009.5
20260508153603 86 130 3.0 7.0 0.00 0.00 0.00 48 1009.5
20260508153505 86 123 3.0 7.0 0.00 0.00 0.00 48 1009.6
20260508153403 86 80 3.0 7.0 0.00 0.00 0.00 48 1009.6
20260508153303 86 107 2.0 4.0 0.00 0.00 0.00 49 1009.6
20260508153203 86 132 2.0 4.0 0.00 0.00 0.00 48 1009.6
20260508153103 86 126 3.0 4.0 0.00 0.00 0.00 49 1009.6
20260508153006 86 143 2.0 4.0 0.00 0.00 0.00 49 1009.6
20260508152903 86 108 3.0 4.0 0.00 0.00 0.00 49 1009.6
20260508152702 86 101 1.0 4.0 0.00 0.00 0.00 49 1009.6
20260508152602 86 84 2.0 4.0 0.00 0.00 0.00 49 1009.6
20260508152505 86 107 2.0 4.0 0.00 0.00 0.00 49 1009.6
20260508152402 86 55 1.0 4.0 0.00 0.00 0.00 49 1009.6
20260508152305 86 147 2.0 4.0 0.00 0.00 0.00 49 1009.6
20260508152202 86 121 2.0 4.0 0.00 0.00 0.00 49 1009.6
20260508152103 86 92 2.0 4.0 0.00 0.00 0.00 49 1009.7
20260508152006 86 97 2.0 4.0 0.00 0.00 0.00 48 1009.7
20260508151903 86 88 2.0 4.0 0.00 0.00 0.00 49 1009.6
20260508151803 86 92 2.0 4.0 0.00 0.00 0.00 48 1009.6
20260508151704 86 111 2.0 4.0 0.00 0.00 0.00 48 1009.7
20260508151604 86 84 2.0 4.0 0.00 0.00 0.00 48 1009.6
20260508151507 86 107 2.0 4.0 0.00 0.00 0.00 48 1009.6
20260508151405 86 107 2.0 4.0 0.00 0.00 0.00 48 1009.5
20260508151203 86 89 2.0 4.0 0.00 0.00 0.00 48 1009.5
20260508151102 86 105 2.0 4.0 0.00 0.00 0.00 48 1009.6
20260508151008 86 96 2.0 4.0 0.00 0.00 0.00 48 1009.6
20260508150802 86 100 1.0 4.0 0.00 0.00 0.00 48 1009.5
20260508150702 86 105 2.0 4.0 0.00 0.00 0.00 48 1009.5
20260508150504 86 132 1.0 4.0 0.00 0.00 0.00 48 1009.5
20260508150402 86 86 1.0 4.0 0.00 0.00 0.00 48 1009.5
20260508150303 86 74 1.0 4.0 0.00 0.00 0.00 48 1009.5
20260508150202 86 82 1.0 4.0 0.00 0.00 0.00 48 1009.4
20260508150007 86 75 3.0 4.0 0.00 0.00 0.00 48 1009.4
20260508145904 87 96 2.0 4.0 0.00 0.00 0.00 48 1009.4
20260508145806 87 96 2.0 3.0 0.00 0.00 0.00 48 1009.4
20260508145705 87 90 1.0 4.0 0.00 0.00 0.00 48 1009.4
20260508145604 87 103 2.0 4.0 0.00 0.00 0.00 48 1009.4
20260508145307 87 91 1.0 4.0 0.00 0.00 0.00 48 1009.3
20260508145203 87 96 1.0 4.0 0.00 0.00 0.00 48 1009.4
20260508145103 87 77 2.0 4.0 0.00 0.00 0.00 48 1009.2
20260508145006 87 98 3.0 4.0 0.00 0.00 0.00 48 1009.2
20260508144904 87 90 3.0 4.0 0.00 0.00 0.00 47 1009.2
20260508144705 87 109 2.0 7.0 0.00 0.00 0.00 47 1009.2
20260508144604 87 99 2.0 7.0 0.00 0.00 0.00 47 1009.2
20260508144405 87 113 2.0 7.0 0.00 0.00 0.00 47 1009.2
20260508144303 87 113 3.0 7.0 0.00 0.00 0.00 47 1009.2
20260508144203 87 132 3.0 7.0 0.00 0.00 0.00 47 1009.1
20260508144104 87 103 3.0 7.0 0.00 0.00 0.00 47 1009.1
20260508144008 87 128 4.0 7.0 0.00 0.00 0.00 47 1009.2
20260508143903 87 80 3.0 4.0 0.00 0.00 0.00 47 1009.1
20260508143804 87 92 2.0 4.0 0.00 0.00 0.00 47 1009.1
20260508143703 87 111 2.0 4.0 0.00 0.00 0.00 47 1009.1
20260508143605 87 77 2.0 4.0 0.00 0.00 0.00 47 1009.1
20260508143506 87 121 2.0 4.0 0.00 0.00 0.00 47 1009.1
20260508143404 87 98 2.0 4.0 0.00 0.00 0.00 47 1009.1
20260508143204 87 142 2.0 4.0 0.00 0.00 0.00 46 1009.1
20260508142907 88 131 2.0 4.0 0.00 0.00 0.00 47 1009.1
20260508142803 88 150 2.0 4.0 0.00 0.00 0.00 47 1009.0
20260508142704 88 106 2.0 4.0 0.00 0.00 0.00 46 1009.0
20260508142505 88 109 2.0 4.0 0.00 0.00 0.00 47 1009.1
20260508142204 88 112 2.0 4.0 0.00 0.00 0.00 46 1009.1
20260508142104 88 94 2.0 4.0 0.00 0.00 0.00 46 1009.1
20260508142007 88 74 2.0 4.0 0.00 0.00 0.00 46 1009.1
20260508141904 88 108 2.0 4.0 0.00 0.00 0.00 46 1009.1
20260508141804 88 117 2.0 4.0 0.00 0.00 0.00 46 1009.1
20260508141605 88 117 2.0 4.0 0.00 0.00 0.00 46 1009.1
20260508141505 88 117 2.0 4.0 0.00 0.00 0.00 46 1009.0
20260508141404 88 82 2.0 4.0 0.00 0.00 0.00 46 1009.0
20260508141203 88 59 2.0 5.0 0.00 0.00 0.00 46 1009.0
20260508141104 88 129 2.0 5.0 0.00 0.00 0.00 46 1009.1
20260508141007 88 102 2.0 5.0 0.00 0.00 0.00 46 1009.1
20260508140603 88 96 3.0 5.0 0.00 0.00 0.00 46 1009.0
20260508140506 88 113 3.0 5.0 0.00 0.00 0.00 46 1009.0
20260508140404 88 100 2.0 5.0 0.00 0.00 0.00 46 1009.0
20260508140303 88 93 3.0 5.0 0.00 0.00 0.00 46 1009.0
20260508140203 88 104 3.0 5.0 0.00 0.00 0.00 46 1009.0
20260508140104 88 107 2.0 4.0 0.00 0.00 0.00 46 1009.0
20260508140008 88 76 2.0 4.0 0.00 0.00 0.00 46 1009.0
20260508135903 88 67 2.0 4.0 0.00 0.00 0.00 46 1009.0
20260508135802 88 92 1.0 4.0 0.00 0.00 0.00 46 1009.0
20260508135702 88 70 2.0 4.0 0.00 0.00 0.00 45 1009.0
20260508135602 88 138 2.0 4.0 0.00 0.00 0.00 45 1008.9
20260508135404 88 113 2.0 4.0 0.00 0.00 0.00 45 1008.9
20260508135305 88 92 2.0 4.0 0.00 0.00 0.00 45 1008.9
20260508135203 88 88 2.0 4.0 0.00 0.00 0.00 45 1008.9
20260508134803 89 124 2.0 6.0 0.00 0.00 0.00 45 1008.9
20260508134702 89 125 3.0 6.0 0.00 0.00 0.00 46 1008.8
20260508134603 89 133 2.0 6.0 0.00 0.00 0.00 45 1008.8
20260508134504 89 113 2.0 6.0 0.00 0.00 0.00 45 1008.8
20260508134301 89 111 2.0 6.0 0.00 0.00 0.00 45 1008.8
20260508134202 89 140 3.0 6.0 0.00 0.00 0.00 45 1008.8
20260508134102 89 101 2.0 6.0 0.00 0.00 0.00 45 1008.8
20260508134006 89 119 2.0 6.0 0.00 0.00 0.00 45 1008.8
20260508133902 89 103 2.0 5.0 0.00 0.00 0.00 45 1008.8
20260508133802 89 135 2.0 4.0 0.00 0.00 0.00 45 1008.8
20260508133703 89 109 2.0 4.0 0.00 0.00 0.00 45 1008.8
20260508133602 89 99 2.0 4.0 0.00 0.00 0.00 45 1008.8
20260508133504 89 204 2.0 4.0 0.00 0.00 0.00 45 1008.8
20260508133402 89 118 2.0 4.0 0.00 0.00 0.00 45 1008.7
20260508133303 89 127 1.0 6.0 0.00 0.00 0.00 45 1008.7
20260508133203 89 113 1.0 6.0 0.00 0.00 0.00 45 1008.8
20260508133102 89 114 1.0 6.0 0.00 0.00 0.00 45 1008.8
20260508133005 89 150 2.0 6.0 0.00 0.00 0.00 45 1008.7
20260508132902 89 109 2.0 6.0 0.00 0.00 0.00 45 1008.7
20260508132803 89 94 2.0 6.0 0.00 0.00 0.00 45 1008.6
20260508132702 89 86 2.0 6.0 0.00 0.00 0.00 45 1008.7
20260508132504 89 130 3.0 6.0 0.00 0.00 0.00 44 1008.7
20260508132402 89 92 2.0 6.0 0.00 0.00 0.00 45 1008.6
20260508132306 89 134 3.0 5.0 0.00 0.00 0.00 44 1008.7
20260508132202 89 131 3.0 5.0 0.00 0.00 0.00 44 1008.7
20260508132102 89 82 3.0 6.0 0.00 0.00 0.00 44 1008.6
20260508132007 89 102 3.0 5.0 0.00 0.00 0.00 44 1008.7
20260508131902 89 94 2.0 4.0 0.00 0.00 0.00 44 1008.7
20260508131803 89 39 2.0 6.0 0.00 0.00 0.00 44 1008.6
20260508131702 89 76 2.0 6.0 0.00 0.00 0.00 44 1008.6
20260508131602 89 62 2.0 6.0 0.00 0.00 0.00 44 1008.7
20260508131505 89 88 1.0 6.0 0.00 0.00 0.00 44 1008.6
20260508131402 89 126 2.0 6.0 0.00 0.00 0.00 44 1008.6
20260508131309 89 98 2.0 6.0 0.00 0.00 0.00 44 1008.6
20260508131203 89 126 2.0 6.0 0.00 0.00 0.00 44 1008.6
20260508131102 90 107 3.0 6.0 0.00 0.00 0.00 44 1008.6
20260508131006 90 91 2.0 6.0 0.00 0.00 0.00 44 1008.7
20260508130903 90 96 2.0 6.0 0.00 0.00 0.00 44 1008.6
20260508130802 90 101 3.0 6.0 0.00 0.00 0.00 44 1008.6
20260508130702 90 152 2.0 6.0 0.00 0.00 0.00 44 1008.7
20260508130604 90 82 2.0 6.0 0.00 0.00 0.00 44 1008.7
20260508130505 90 315 2.0 6.0 0.00 0.00 0.00 44 1008.6
20260508130204 90 103 2.0 6.0 0.00 0.00 0.00 44 1008.6
20260508130007 90 71 2.0 5.0 0.00 0.00 0.00 44 1008.7
20260508125902 90 71 1.0 5.0 0.00 0.00 0.00 44 1008.7
20260508125802 90 111 2.0 5.0 0.00 0.00 0.00 44 1008.6
20260508125704 90 76 2.0 5.0 0.00 0.00 0.00 44 1008.8
20260508125603 90 78 2.0 5.0 0.00 0.00 0.00 44 1008.8
20260508125506 90 103 3.0 5.0 0.00 0.00 0.00 44 1008.7
20260508125404 90 65 3.0 5.0 0.00 0.00 0.00 44 1008.7
20260508125306 90 84 3.0 5.0 0.00 0.00 0.00 44 1008.6
20260508125204 90 103 3.0 5.0 0.00 0.00 0.00 43 1008.7
20260508125104 90 76 3.0 6.0 0.00 0.00 0.00 43 1008.7
20260508125008 90 94 3.0 5.0 0.00 0.00 0.00 43 1008.7
20260508124805 90 95 3.0 5.0 0.00 0.00 0.00 43 1008.6
20260508124704 90 108 2.0 5.0 0.00 0.00 0.00 44 1008.6
20260508124505 90 355 2.0 7.0 0.00 0.00 0.00 44 1008.6
20260508124404 90 78 2.0 7.0 0.00 0.00 0.00 44 1008.6
20260508124304 90 69 2.0 7.0 0.00 0.00 0.00 44 1008.6
20260508124204 90 21 2.0 7.0 0.00 0.00 0.00 44 1008.6
20260508124104 90 78 1.0 7.0 0.00 0.00 0.00 43 1008.5
20260508124008 90 90 2.0 7.0 0.00 0.00 0.00 43 1008.6
20260508123904 90 36 4.0 7.0 0.00 0.00 0.00 43 1008.6
20260508123804 90 103 4.0 6.0 0.00 0.00 0.00 44 1008.6
20260508123705 90 78 3.0 6.0 0.00 0.00 0.00 44 1008.5
20260508123603 90 113 3.0 6.0 0.00 0.00 0.00 43 1008.5
20260508123506 90 124 3.0 6.0 0.00 0.00 0.00 44 1008.5
20260508123403 90 127 3.0 6.0 0.00 0.00 0.00 44 1008.5
20260508123205 90 104 2.0 6.0 0.00 0.00 0.00 44 1008.5
20260508123006 90 78 3.0 8.0 0.00 0.00 0.00 44 1008.5
20260508122905 90 72 2.0 8.0 0.00 0.00 0.00 43 1008.5
20260508122805 90 64 2.0 8.0 0.00 0.00 0.00 43 1008.5
20260508122602 90 96 4.0 8.0 0.00 0.00 0.00 43 1008.4
20260508122506 91 76 4.0 8.0 0.00 0.00 0.00 43 1008.4
20260508122404 91 103 4.0 8.0 0.00 0.00 0.00 43 1008.5
20260508122307 91 88 4.0 8.0 0.00 0.00 0.00 43 1008.5
20260508122204 91 88 4.0 8.0 0.00 0.00 0.00 43 1008.5
20260508122104 91 60 4.0 8.0 0.00 0.00 0.00 43 1008.5
20260508122007 91 92 4.0 7.0 0.00 0.00 0.00 43 1008.5
20260508121903 91 86 3.0 7.0 0.00 0.00 0.00 43 1008.5
20260508121702 91 97 3.0 7.0 0.00 0.00 0.00 43 1008.5
20260508121603 91 146 3.0 7.0 0.00 0.00 0.00 43 1008.4
20260508121506 91 119 4.0 7.0 0.00 0.00 0.00 43 1008.4
20260508121403 91 96 3.0 7.0 0.00 0.00 0.00 42 1008.5
20260508121304 91 100 3.0 7.0 0.00 0.00 0.00 43 1008.4
20260508121204 91 76 3.0 7.0 0.00 0.00 0.00 43 1008.4
20260508121104 91 81 3.0 7.0 0.00 0.00 0.00 43 1008.5
20260508121006 91 74 3.0 6.0 0.00 0.00 0.00 43 1008.4
20260508120903 91 64 3.0 6.0 0.00 0.00 0.00 42 1008.4
20260508120803 91 74 3.0 6.0 0.00 0.00 0.00 42 1008.4
20260508120603 91 122 3.0 8.0 0.00 0.00 0.00 42 1008.4
20260508120506 91 68 2.0 8.0 0.00 0.00 0.00 42 1008.3
20260508120405 91 73 2.0 8.0 0.00 0.00 0.00 42 1008.4
20260508120303 91 100 2.0 8.0 0.00 0.00 0.00 42 1008.4
20260508120203 91 88 2.0 8.0 0.00 0.00 0.00 42 1008.3
20260508120106 91 124 2.0 8.0 0.00 0.00 0.00 42 1008.3
20260508120007 91 71 4.0 8.0 0.00 0.00 0.00 42 1008.3
20260508115904 91 67 4.0 8.0 0.00 0.00 0.00 41 1008.3
20260508115803 91 55 4.0 8.0 0.00 0.00 0.00 42 1008.3
20260508115703 91 74 4.0 8.0 0.00 0.00 0.00 42 1008.4
20260508115404 91 96 4.0 8.0 0.00 0.00 0.00 42 1008.3
20260508115306 91 105 3.0 8.0 0.00 0.00 0.00 42 1008.4
20260508115202 91 117 4.0 8.0 0.00 0.00 0.00 42 1008.3
20260508115102 91 87 5.0 8.0 0.00 0.00 0.00 42 1008.3
20260508114902 91 76 5.0 8.0 0.00 0.00 0.00 42 1008.3
20260508114803 91 39 4.0 8.0 0.00 0.00 0.00 42 1008.3
20260508114702 91 107 3.0 8.0 0.00 0.00 0.00 42 1008.3
20260508114603 91 23 4.0 8.0 0.00 0.00 0.00 42 1008.3
20260508114504 91 56 4.0 8.0 0.00 0.00 0.00 41 1008.3
20260508114403 91 107 5.0 8.0 0.00 0.00 0.00 41 1008.3
20260508114302 91 109 5.0 8.0 0.00 0.00 0.00 42 1008.3
20260508114103 91 94 3.0 5.0 0.00 0.00 0.00 42 1008.3
20260508114005 91 90 3.0 6.0 0.00 0.00 0.00 42 1008.3
20260508113902 91 72 3.0 6.0 0.00 0.00 0.00 42 1008.3
20260508113703 91 102 2.0 6.0 0.00 0.00 0.00 41 1008.3
20260508113602 91 40 2.0 6.0 0.00 0.00 0.00 41 1008.3
20260508113404 91 63 3.0 8.0 0.00 0.00 0.00 41 1008.3
20260508113304 91 69 3.0 8.0 0.00 0.00 0.00 41 1008.2
20260508113202 91 78 3.0 8.0 0.00 0.00 0.00 41 1008.3
20260508113101 91 101 3.0 8.0 0.00 0.00 0.00 41 1008.2
20260508113006 91 107 3.0 8.0 0.00 0.00 0.00 41 1008.3
20260508112903 91 73 4.0 8.0 0.00 0.00 0.00 41 1008.3
20260508112803 91 51 4.0 8.0 0.00 0.00 0.00 41 1008.2
20260508112702 91 65 3.0 6.0 0.00 0.00 0.00 41 1008.3
20260508112504 91 78 3.0 6.0 0.00 0.00 0.00 41 1008.3
20260508112403 91 90 4.0 6.0 0.00 0.00 0.00 41 1008.3
20260508112306 91 100 4.0 8.0 0.00 0.00 0.00 41 1008.3
20260508112202 91 69 2.0 8.0 0.00 0.00 0.00 42 1008.3
20260508111902 91 114 6.0 9.0 0.00 0.00 0.00 41 1008.3
20260508111804 91 128 5.0 9.0 0.00 0.00 0.00 41 1008.3
20260508111702 91 136 5.0 9.0 0.00 0.00 0.00 41 1008.3
20260508111602 91 57 5.0 9.0 0.00 0.00 0.00 41 1008.3
20260508111504 91 75 4.0 9.0 0.00 0.00 0.00 41 1008.4
20260508111402 91 62 4.0 9.0 0.00 0.00 0.00 41 1008.4
20260508111202 91 58 5.0 9.0 0.00 0.00 0.00 41 1008.3
20260508111102 91 61 4.0 8.0 0.00 0.00 0.00 41 1008.4
20260508111005 91 54 3.0 8.0 0.00 0.00 0.00 41 1008.4
20260508110902 91 47 2.0 8.0 0.00 0.00 0.00 41 1008.3
20260508110804 91 115 2.0 8.0 0.00 0.00 0.00 41 1008.4
20260508110702 91 98 2.0 8.0 0.00 0.00 0.00 41 1008.3
20260508110602 91 77 2.0 8.0 0.00 0.00 0.00 41 1008.4
20260508110504 91 37 2.0 8.0 0.00 0.00 0.00 41 1008.5
20260508110403 91 101 3.0 8.0 0.00 0.00 0.00 41 1008.5
20260508110302 91 91 3.0 8.0 0.00 0.00 0.00 41 1008.5
20260508110201 91 75 2.0 8.0 0.00 0.00 0.00 41 1008.5
20260508110007 91 110 4.0 7.0 0.00 0.00 0.00 41 1008.5
20260508105903 91 96 4.0 8.0 0.00 0.00 0.00 41 1008.6
20260508105803 91 131 4.0 8.0 0.00 0.00 0.00 42 1008.6
20260508105702 91 98 4.0 8.0 0.00 0.00 0.00 42 1008.5
20260508105601 91 106 4.0 8.0 0.00 0.00 0.00 42 1008.6
20260508105504 91 84 3.0 8.0 0.00 0.00 0.00 41 1008.5
20260508105403 91 69 3.0 9.0 0.00 0.00 0.00 41 1008.6
20260508105305 91 87 4.0 9.0 0.00 0.00 0.00 41 1008.6
20260508105202 91 63 5.0 9.0 0.00 0.00 0.00 41 1008.6
20260508105103 91 129 5.0 9.0 0.00 0.00 0.00 40 1008.6
20260508105005 91 109 4.0 9.0 0.00 0.00 0.00 41 1008.6
20260508104902 91 60 4.0 9.0 0.00 0.00 0.00 41 1008.6
20260508104803 91 126 5.0 9.0 0.00 0.00 0.00 41 1008.7
20260508104703 91 69 5.0 9.0 0.00 0.00 0.00 41 1008.6
20260508104604 91 119 6.0 9.0 0.00 0.00 0.00 41 1008.6
20260508104504 91 111 6.0 9.0 0.00 0.00 0.00 41 1008.7
20260508104403 91 131 5.0 9.0 0.00 0.00 0.00 41 1008.6
20260508104303 91 126 4.0 8.0 0.00 0.00 0.00 41 1008.8
20260508104202 91 110 2.0 6.0 0.00 0.00 0.00 41 1008.7
20260508103903 91 103 4.0 6.0 0.00 0.00 0.00 40 1008.8
20260508103802 91 108 2.0 6.0 0.00 0.00 0.00 40 1008.8
20260508103603 91 157 2.0 9.0 0.00 0.00 0.00 40 1008.8
20260508103506 92 169 1.0 10.0 0.00 0.00 0.00 41 1008.8
20260508103404 92 196 1.0 10.0 0.00 0.00 0.00 41 1008.8
20260508103203 92 186 2.0 10.0 0.00 0.00 0.00 41 1008.8
20260508103103 92 198 3.0 10.0 0.00 0.00 0.00 40 1008.8
20260508103006 92 197 3.0 10.0 0.00 0.00 0.00 40 1008.8
20260508102903 92 167 4.0 10.0 0.00 0.00 0.00 41 1008.8
20260508102803 92 204 7.0 10.0 0.00 0.00 0.00 41 1008.8
20260508102702 92 178 6.0 10.0 0.00 0.00 0.00 41 1008.6
20260508102602 92 245 4.0 9.0 0.00 0.00 0.00 41 1008.7
20260508102504 92 35 4.0 9.0 0.00 0.00 0.00 41 1008.7
20260508102306 91 301 3.0 9.0 0.00 0.00 0.00 41 1008.8
20260508102202 91 311 1.0 5.0 0.00 0.00 0.00 41 1008.9
20260508102104 91 5 1.0 5.0 0.00 0.00 0.00 40 1008.9
20260508102008 91 69 1.0 7.0 0.00 0.00 0.00 40 1008.9
20260508101902 91 79 2.0 7.0 0.00 0.00 0.00 40 1009.0
20260508101802 91 58 3.0 7.0 0.00 0.00 0.00 40 1008.9
20260508101703 91 51 3.0 7.0 0.00 0.00 0.00 41 1009.0
20260508101602 91 104 2.0 10.0 0.00 0.00 0.00 41 1009.0
20260508101504 91 95 2.0 11.0 0.00 0.00 0.00 41 1009.0
20260508101402 91 86 3.0 11.0 0.00 0.00 0.00 40 1009.0
20260508101303 91 98 4.0 11.0 0.00 0.00 0.00 40 1009.0
20260508101202 91 97 4.0 11.0 0.00 0.00 0.00 40 1009.0
20260508101104 91 69 3.0 11.0 0.00 0.00 0.00 41 1009.0
20260508101006 91 160 4.0 11.0 0.00 0.00 0.00 41 1009.0
20260508100903 92 82 6.0 11.0 0.00 0.00 0.00 40 1009.0
20260508100703 92 107 3.0 10.0 0.00 0.00 0.00 40 1009.0
20260508100602 92 117 4.0 8.0 0.00 0.00 0.00 40 1008.9
20260508100505 92 109 5.0 8.0 0.00 0.00 0.00 40 1009.0
20260508100402 92 70 5.0 8.0 0.00 0.00 0.00 40 1009.0
20260508100302 92 139 3.0 8.0 0.00 0.00 0.00 40 1009.0
20260508100205 92 98 3.0 9.0 0.00 0.00 0.00 40 1009.0
20260508100107 92 57 4.0 9.0 0.00 0.00 0.00 40 1009.0
20260508100008 92 186 4.0 9.0 0.00 0.00 0.00 40 1009.0
20260508095902 92 80 3.0 9.0 0.00 0.00 0.00 40 1009.0
20260508095803 92 146 3.0 9.0 0.00 0.00 0.00 41 1008.9
20260508095702 92 71 3.0 9.0 0.00 0.00 0.00 41 1009.1
20260508095603 92 112 4.0 9.0 0.00 0.00 0.00 40 1009.0
20260508095402 92 78 6.0 9.0 0.00 0.00 0.00 40 1009.0
20260508095306 92 142 4.0 9.0 0.00 0.00 0.00 40 1009.0
20260508095203 92 101 5.0 9.0 0.00 0.00 0.00 40 1009.0
20260508095102 92 69 6.0 9.0 0.00 0.00 0.00 40 1009.0
20260508094904 92 64 4.0 9.0 0.00 0.00 0.00 40 1009.1
20260508094804 92 129 4.0 9.0 0.00 0.00 0.00 41 1009.1
20260508094703 91 109 4.0 9.0 0.00 0.00 0.00 41 1009.2
20260508094505 91 151 3.0 9.0 0.00 0.00 0.00 40 1009.2
20260508094402 91 173 4.0 9.0 0.00 0.00 0.00 40 1009.2
20260508094302 91 137 5.0 9.0 0.00 0.00 0.00 40 1009.2
20260508094007 91 101 2.0 6.0 0.00 0.00 0.00 40 1009.2
20260508093903 91 60 1.0 7.0 0.00 0.00 0.00 40 1009.3
20260508093703 91 267 2.0 9.0 0.00 0.00 0.00 41 1009.4
20260508093603 91 261 3.0 9.0 0.00 0.00 0.00 41 1009.4
20260508093504 91 205 4.0 9.0 0.00 0.00 0.00 40 1009.4
20260508093403 91 178 4.0 9.0 0.00 0.00 0.00 40 1009.5
20260508093304 91 190 4.0 10.0 0.00 0.00 0.00 40 1009.5
20260508093202 91 204 6.0 10.0 0.00 0.00 0.00 40 1009.5
20260508092903 91 138 4.0 10.0 0.00 0.00 0.00 41 1009.4
20260508092802 91 149 3.0 10.0 0.00 0.00 0.00 41 1009.5
20260508092603 91 143 5.0 10.0 0.00 0.00 0.00 41 1009.5
20260508092505 91 84 5.0 10.0 0.00 0.00 0.00 40 1009.5
20260508092402 91 113 4.0 8.0 0.00 0.00 0.00 41 1009.5
20260508092312 91 132 4.0 8.0 0.00 0.00 0.00 40 1009.5
20260508092203 91 106 3.0 8.0 0.00 0.00 0.00 41 1009.6
20260508092003 91 42 2.0 8.0 0.00 0.00 0.00 41 1009.5
20260508091902 91 55 3.0 8.0 0.00 0.00 0.00 41 1009.6
20260508091802 91 82 4.0 8.0 0.00 0.00 0.00 40 1009.5
20260508091603 91 125 5.0 9.0 0.00 0.00 0.00 40 1009.6
20260508091504 91 153 5.0 9.0 0.00 0.00 0.00 40 1009.6
20260508091403 91 169 3.0 9.0 0.00 0.00 0.00 40 1009.7
20260508091302 91 122 1.0 9.0 0.00 0.00 0.00 40 1009.6
20260508091202 91 138 3.0 9.0 0.00 0.00 0.00 40 1009.6
20260508091103 91 82 4.0 9.0 0.00 0.00 0.00 40 1009.6
20260508091006 91 133 5.0 9.0 0.00 0.00 0.00 40 1009.6
20260508090705 91 172 5.0 8.0 0.00 0.00 0.00 41 1009.6
20260508090604 91 159 4.0 8.0 0.00 0.00 0.00 41 1009.7
20260508090506 91 135 3.0 7.0 0.00 0.00 0.00 40 1009.7
20260508090405 91 79 4.0 7.0 0.00 0.00 0.00 40 1009.7
20260508090303 91 104 3.0 7.0 0.00 0.00 0.00 40 1009.6
20260508090205 91 123 2.0 7.0 0.00 0.00 0.00 40 1009.6
20260508090104 91 124 1.0 8.0 0.00 0.00 0.00 41 1009.7
20260508090006 91 165 1.0 8.0 0.00 0.00 0.00 41 1009.7
20260508085803 91 250 2.0 8.0 0.00 0.00 0.00 42 1009.7
20260508085603 91 223 3.0 8.0 0.00 0.00 0.00 42 1009.8
20260508085504 91 234 4.0 8.0 0.00 0.00 0.00 40 1009.8
20260508085404 91 184 6.0 8.0 0.00 0.00 0.00 41 1009.8
20260508085306 91 169 6.0 9.0 0.00 0.00 0.00 41 1009.8
20260508085202 91 189 5.0 9.0 0.00 0.00 0.00 41 1009.8
20260508085102 90 174 4.0 12.0 0.00 0.00 0.00 41 1009.8
20260508085006 90 167 3.0 12.0 0.00 0.00 0.00 41 1009.8
20260508084802 90 132 3.0 12.0 0.00 0.00 0.00 41 1009.8
20260508084704 90 144 2.0 12.0 0.00 0.00 0.00 41 1009.9
20260508084603 90 184 4.0 12.0 0.00 0.00 0.00 41 1009.9
20260508084505 90 176 7.0 12.0 0.00 0.00 0.00 41 1009.9
20260508084402 90 169 8.0 12.0 0.00 0.00 0.00 41 1010.1
20260508084304 90 138 9.0 12.0 0.00 0.00 0.00 41 1009.8
20260508084105 90 103 8.0 12.0 0.00 0.00 0.00 41 1009.8
20260508084005 91 107 7.0 12.0 0.00 0.00 0.00 41 1009.9
20260508083903 91 96 7.0 12.0 0.00 0.00 0.00 41 1009.9
20260508083804 91 178 6.0 12.0 0.00 0.00 0.00 41 1009.9
20260508083704 91 115 4.0 9.0 0.00 0.00 0.00 41 1009.9
20260508083505 90 188 3.0 7.0 0.00 0.00 0.00 41 1009.9
20260508083403 90 176 2.0 10.0 0.00 0.00 0.00 42 1009.9
20260508083303 90 169 3.0 10.0 0.00 0.00 0.00 41 1009.9
20260508083204 90 98 4.0 10.0 0.00 0.00 0.00 40 1009.9
20260508083102 90 108 4.0 10.0 0.00 0.00 0.00 41 1010.0
20260508083006 90 98 4.0 10.0 0.00 0.00 0.00 41 1010.0
20260508082904 90 66 4.0 10.0 0.00 0.00 0.00 42 1010.0
20260508082704 90 103 5.0 11.0 0.00 0.00 0.00 41 1010.0
20260508082602 90 104 3.0 11.0 0.00 0.00 0.00 42 1010.0
20260508082506 90 181 4.0 11.0 0.00 0.00 0.00 42 1010.1
20260508082403 90 180 6.0 11.0 0.00 0.00 0.00 42 1010.0
20260508082305 90 125 6.0 11.0 0.00 0.00 0.00 42 1010.0
20260508082203 90 117 7.0 11.0 0.00 0.00 0.00 42 1010.0
20260508082102 90 82 7.0 11.0 0.00 0.00 0.00 41 1010.0
20260508081904 90 84 9.0 11.0 0.00 0.00 0.00 41 1010.0
20260508081805 90 132 7.0 11.0 0.00 0.00 0.00 42 1010.1
20260508081704 89 126 4.0 11.0 0.00 0.00 0.00 43 1010.0
20260508081505 89 95 3.0 12.0 0.00 0.00 0.00 42 1010.1
20260508081400 89 123 4.0 12.0 0.00 0.00 0.00 42 1010.0
20260508081303 89 288 4.0 12.0 0.00 0.00 0.00 43 1010.1
20260508081200 89 194 5.0 12.0 0.00 0.00 0.00 43 1010.1
20260508081103 89 229 6.0 12.0 0.00 0.00 0.00 43 1010.1
20260508081006 89 191 7.0 12.0 0.00 0.00 0.00 43 1010.1
20260508080903 89 188 7.0 14.0 0.00 0.00 0.00 43 1010.1
20260508080703 89 140 6.0 14.0 0.00 0.00 0.00 42 1010.1
20260508080508 89 167 5.0 14.0 0.00 0.00 0.00 43 1010.1
20260508080404 89 167 6.0 14.0 0.00 0.00 0.00 43 1010.2
20260508080303 89 186 7.0 14.0 0.00 0.00 0.00 42 1010.2
20260508075903 89 168 5.0 11.0 0.00 0.00 0.00 42 1010.2
20260508075803 89 128 4.0 15.0 0.00 0.00 0.00 42 1010.2
20260508075702 89 172 5.0 15.0 0.00 0.00 0.00 42 1010.2
20260508075603 89 148 6.0 15.0 0.00 0.00 0.00 42 1010.3
20260508075504 89 185 6.0 15.0 0.00 0.00 0.00 42 1010.3
20260508075403 89 172 6.0 15.0 0.00 0.00 0.00 42 1010.3